FW0869 Weather Reports


Display with metric or nautical units.
time (UTC)temp
F
wind
direction
speed
MPH
gust
MPH
rain 1hr
in
rain 24hr
in
rain mn
in
humidity
%
barometer
mb
20260904131446 0 277 1.0 3.0 0.00 0.00 0.00 1019.6
20260904131344 0 277 1.0 3.0 0.00 0.00 0.00 1019.6
20260904131242 0 277 1.0 3.0 0.00 0.00 0.00 1019.6
20260904131147 0 277 1.0 3.0 0.00 0.00 0.00 1019.6
20260904130939 0 277 1.0 5.0 0.00 0.00 0.00 1019.7
20260904130839 0 277 1.0 5.0 0.00 0.00 0.00 1019.7
20260904130751 0 277 1.0 5.0 0.00 0.00 0.00 1019.7
20260904130738 0 277 2.0 5.0 0.00 0.00 0.00 1019.7
20260904130638 0 277 2.0 5.0 0.00 0.00 0.00 1019.7
20260904130538 0 277 2.0 5.0 0.00 0.00 0.00 1019.8
20260904130437 0 277 2.0 5.0 0.00 0.00 0.00 1019.7
20260904130337 0 277 2.0 5.0 0.00 0.00 0.00 1019.7
20260904130250 0 277 2.0 5.0 0.00 0.00 0.00 1019.7
20260904130235 0 277 1.0 5.0 0.00 0.00 0.00 1019.8
20260904130136 0 277 1.0 5.0 0.00 0.00 0.00 1019.7
20260904130032 0 246 1.0 5.0 0.00 0.00 0.00 1019.7
20260904125928 0 253 1.0 3.0 0.00 0.00 0.00 1019.7
20260904125854 0 240 1.0 3.0 0.00 0.00 0.00 1019.7
20260904125727 0 253 1.0 3.0 0.00 0.00 0.00 1019.7
20260904125622 0 142 1.0 3.0 0.00 0.00 0.00 1019.6
20260904125520 0 142 1.0 3.0 0.00 0.00 0.00 1019.6
20260904125420 0 142 1.0 3.0 0.00 0.00 0.00 1019.6
20260904125319 0 142 1.0 3.0 0.00 0.00 0.00 1019.4
20260904125217 0 142 1.0 3.0 0.00 0.00 0.00 1019.4
20260904125119 0 142 1.0 3.0 0.00 0.00 0.00 1019.6
20260904125024 0 142 1.0 3.0 0.00 0.00 0.00 1019.4
20260904124827 0 142 1.0 3.0 0.00 0.00 0.00 1019.4
20260904124820 0 142 1.0 3.0 0.00 0.00 0.00 1019.4
20260904124614 0 142 1.0 3.0 0.00 0.00 0.00 1019.4
20260904124511 0 142 1.0 3.0 0.00 0.00 0.00 1019.4
20260904124418 0 142 1.0 3.0 0.00 0.00 0.00 1019.3
20260904124244 0 142 1.0 3.0 0.00 0.00 0.00 1019.3
20260904124208 0 142 1.0 3.0 0.00 0.00 0.00 1019.3
20260904124107 0 142 1.0 3.0 0.00 0.00 0.00 1019.3
20260904124005 0 142 1.0 3.0 0.00 0.00 0.00 1019.3
20260904123905 0 142 1.0 3.0 0.00 0.00 0.00 1019.4
20260904123850 0 142 1.0 3.0 0.00 0.00 0.00 1019.4
20260904123704 0 142 1.0 3.0 0.00 0.00 0.00 1019.4
20260904123601 0 142 1.0 3.0 0.00 0.00 0.00 1019.4
20260904123459 0 142 1.0 2.0 0.00 0.00 0.00 1019.4
20260904123400 0 142 1.0 3.0 0.00 0.00 0.00 1019.4
20260904123241 0 142 1.0 4.0 0.00 0.00 0.00 1019.4
20260904123207 0 142 1.0 4.0 0.00 0.00 0.00 1019.4
20260904122852 0 142 1.0 4.0 0.00 0.00 0.00 1019.4
20260904122740 0 142 1.0 4.0 0.00 0.00 0.00 1019.4
20260904122656 0 142 1.0 4.0 0.00 0.00 0.00 1019.6
20260904122450 0 142 1.0 4.0 0.00 0.00 0.00 1019.4
20260904122355 0 142 1.0 4.0 0.00 0.00 0.00 1019.4
20260904122239 0 142 1.0 7.0 0.00 0.00 0.00 1019.4
20260904122149 0 251 2.0 7.0 0.00 0.00 0.00 1019.3
20260904122046 0 251 2.0 7.0 0.00 0.00 0.00 1019.3
20260904121944 0 251 2.0 7.0 0.00 0.00 0.00 1019.3
20260904121853 0 251 2.0 7.0 0.00 0.00 0.00 1019.3
20260904121846 0 251 2.0 7.0 0.00 0.00 0.00 1019.3
20260904121642 0 251 2.0 7.0 0.00 0.00 0.00 1019.3
20260904121543 0 251 3.0 7.0 0.00 0.00 0.00 1019.4
20260904121442 0 257 3.0 7.0 0.00 0.00 0.00 1019.4
20260904121339 0 254 2.0 7.0 0.00 0.00 0.00 1019.3
20260904121242 0 211 2.0 5.0 0.00 0.00 0.00 1019.3
20260904121034 0 164 2.0 5.0 0.00 0.00 0.00 1019.2
20260904120934 0 183 2.0 5.0 0.00 0.00 0.00 1019.2
20260904120833 0 182 2.0 5.0 0.00 0.00 0.00 1019.2
20260904120734 0 148 2.0 5.0 0.00 0.00 0.00 1019.2
20260904120634 0 148 2.0 5.0 0.00 0.00 0.00 1019.2
20260904120532 0 148 2.0 5.0 0.00 0.00 0.00 1019.1
20260904120430 0 148 2.0 5.0 0.00 0.00 0.00 1019.1
20260904120341 0 150 2.0 4.0 0.00 0.00 0.00 1019.1
20260904120228 0 138 2.0 4.0 0.00 0.00 0.00 1019.2
20260904120128 0 169 1.0 4.0 0.00 0.00 0.00 1019.1
20260904120026 0 169 1.0 4.0 0.00 0.00 0.00 1019.1
20260904115926 0 169 1.0 4.0 0.00 0.00 0.00 1019.1
20260904115825 0 169 1.0 4.0 0.00 0.00 0.00 1019.1
20260904115723 0 169 1.0 4.0 0.00 0.00 0.00 1019.1
20260904115624 0 169 1.0 4.0 0.00 0.00 0.00 1019.1
20260904115522 0 169 1.0 4.0 0.00 0.00 0.00 1019.2
20260904115421 0 169 1.0 4.0 0.00 0.00 0.00 1019.1
20260904115341 0 169 1.0 4.0 0.00 0.00 0.00 1019.1
20260904115215 0 169 1.0 5.0 0.00 0.00 0.00 1019.1
20260904115110 0 169 2.0 5.0 0.00 0.00 0.00 1019.2
20260904115007 0 169 2.0 5.0 0.00 0.00 0.00 1019.1
20260904114904 0 169 2.0 5.0 0.00 0.00 0.00 1019.1
20260904114803 0 169 2.0 5.0 0.00 0.00 0.00 1019.1
20260904114734 0 169 3.0 6.0 0.00 0.00 0.00 1019.1
20260904114703 0 169 3.0 6.0 0.00 0.00 0.00 1019.1
20260904114603 0 169 3.0 10.0 0.00 0.00 0.00 1019.1
20260904114356 0 169 4.0 10.0 0.00 0.00 0.00 1019.1
20260904114337 0 169 4.0 10.0 0.00 0.00 0.00 1019.1
20260904114154 0 169 4.0 10.0 0.00 0.00 0.00 1019.2
20260904114051 0 169 4.0 10.0 0.00 0.00 0.00 1019.1
20260904113953 0 169 4.0 10.0 0.00 0.00 0.00 1019.2
20260904113744 0 185 4.0 10.0 0.00 0.00 0.00 1019.1
20260904113723 0 168 4.0 10.0 0.00 0.00 0.00 1019.1
20260904113644 0 194 4.0 10.0 0.00 0.00 0.00 1019.1
20260904113542 0 153 3.0 7.0 0.00 0.00 0.00 1019.1
20260904113442 0 147 3.0 7.0 0.00 0.00 0.00 1019.1
20260904113342 0 149 3.0 7.0 0.00 0.00 0.00 1019.1
20260904113240 0 136 3.0 7.0 0.00 0.00 0.00 1019.1
20260904113216 0 145 3.0 7.0 0.00 0.00 0.00 1019.1
20260904113140 0 158 3.0 7.0 0.00 0.00 0.00 1019.0
20260904113039 0 135 3.0 7.0 0.00 0.00 0.00 1019.0
20260904112939 0 138 2.0 7.0 0.00 0.00 0.00 1019.0
20260904112838 0 136 2.0 4.0 0.00 0.00 0.00 1019.0
20260904112737 0 146 2.0 4.0 0.00 0.00 0.00 1019.0
20260904112717 0 132 2.0 4.0 0.00 0.00 0.00 1019.0
20260904112637 0 129 2.0 4.0 0.00 0.00 0.00 1019.0
20260904112540 0 121 2.0 4.0 0.00 0.00 0.00 1019.0
20260904112333 0 171 2.0 4.0 0.00 0.00 0.00 1019.0
20260904112217 0 171 2.0 4.0 0.00 0.00 0.00 1019.0
20260904112130 0 171 1.0 4.0 0.00 0.00 0.00 1019.0
20260904112027 0 171 1.0 4.0 0.00 0.00 0.00 1019.0
20260904111928 0 171 1.0 4.0 0.00 0.00 0.00 1019.0
20260904111825 0 171 1.0 4.0 0.00 0.00 0.00 1018.8
20260904111728 0 192 1.0 3.0 0.00 0.00 0.00 1019.0
20260904111521 0 192 1.0 2.0 0.00 0.00 0.00 1019.0
20260904111417 0 192 1.0 2.0 0.00 0.00 0.00 1019.0
20260904111317 0 192 1.0 4.0 0.00 0.00 0.00 1019.0
20260904111218 0 192 1.0 4.0 0.00 0.00 0.00 1018.8
20260904111116 0 192 1.0 4.0 0.00 0.00 0.00 1018.8
20260904111013 0 192 2.0 4.0 0.00 0.00 0.00 1018.8
20260904110910 0 192 2.0 5.0 0.00 0.00 0.00 1018.8
20260904110808 0 192 2.0 5.0 0.00 0.00 0.00 1018.8
20260904110707 0 192 2.0 5.0 0.00 0.00 0.00 1018.8
20260904110613 0 192 2.0 5.0 0.00 0.00 0.00 1018.8
20260904110406 0 192 2.0 5.0 0.00 0.00 0.00 1018.8
20260904110215 0 200 2.0 5.0 0.00 0.00 0.00 1018.8
20260904110206 0 200 2.0 5.0 0.00 0.00 0.00 1018.8
20260904105959 0 180 2.0 5.0 0.00 0.00 0.00 1018.8
20260904105858 0 193 2.0 4.0 0.00 0.00 0.00 1018.7
20260904105822 0 196 2.0 4.0 0.00 0.00 0.00 1018.7
20260904105709 0 206 1.0 3.0 0.00 0.00 0.00 1018.6
20260904105400 0 206 2.0 3.0 0.00 0.00 0.00 1018.6
20260904105214 0 206 2.0 3.0 0.00 0.00 0.00 1018.6
20260904105154 0 206 2.0 3.0 0.00 0.00 0.00 1018.6
20260904105054 0 206 2.0 3.0 0.00 0.00 0.00 1018.6
20260904104953 0 206 2.0 2.0 0.00 0.00 0.00 1018.5
20260904104853 0 261 2.0 2.0 0.00 0.00 0.00 1018.5
20260904104752 59 261 2.0 2.0 0.00 0.00 0.00 47 1018.5
20260904104713 59 261 2.0 2.0 0.00 0.00 0.00 47 1018.5
20260904104652 59 261 2.0 2.0 0.00 0.00 0.00 47 1018.5
20260904104551 59 261 2.0 3.0 0.00 0.00 0.00 47 1018.4
20260904104452 59 261 2.0 3.0 0.00 0.00 0.00 47 1018.4
20260904104353 59 261 2.0 3.0 0.00 0.00 0.00 47 1018.4
20260904104317 59 261 2.0 3.0 0.00 0.00 0.00 47 1018.4
20260904104154 59 261 2.0 3.0 0.00 0.00 0.00 47 1018.4
20260904103947 59 261 2.0 3.0 0.00 0.00 0.00 47 1018.5
20260904103923 59 261 2.0 3.0 0.00 0.00 0.00 47 1018.6
20260904103640 59 261 2.0 3.0 0.00 0.00 0.00 47 1018.6
20260904103538 59 261 2.0 3.0 0.00 0.00 0.00 47 1018.6
20260904103439 59 261 2.0 4.0 0.00 0.00 0.00 47 1018.6
20260904103335 59 261 2.0 4.0 0.00 0.00 0.00 47 1018.6
20260904103206 59 261 2.0 4.0 0.00 0.00 0.00 47 1018.6
20260904103135 59 261 2.0 4.0 0.00 0.00 0.00 47 1018.5
20260904103031 59 261 2.0 4.0 0.00 0.00 0.00 47 1018.6
20260904102925 59 261 2.0 4.0 0.00 0.00 0.00 47 1018.5
20260904102825 59 261 2.0 4.0 0.00 0.00 0.00 47 1018.5
20260904102705 59 261 2.0 4.0 0.00 0.00 0.00 47 1018.5
20260904102626 59 261 2.0 4.0 0.00 0.00 0.00 48 1018.5
20260904102532 59 261 2.0 4.0 0.00 0.00 0.00 48 1018.4
20260904102324 59 261 2.0 4.0 0.00 0.00 0.00 49 1018.5
20260904102221 59 261 1.0 4.0 0.00 0.00 0.00 49 1018.4
20260904102159 59 188 1.0 3.0 0.00 0.00 0.00 49 1018.4
20260904102122 59 188 1.0 3.0 0.00 0.00 0.00 49 1018.4
20260904102020 59 188 2.0 3.0 0.00 0.00 0.00 50 1018.4
20260904101916 59 188 2.0 3.0 0.00 0.00 0.00 49 1018.4
20260904101813 59 188 2.0 3.0 0.00 0.00 0.00 49 1018.4
20260904101713 59 188 2.0 3.0 0.00 0.00 0.00 50 1018.4
20260904101654 59 188 2.0 3.0 0.00 0.00 0.00 50 1018.4
20260904101614 59 188 2.0 3.0 0.00 0.00 0.00 50 1018.5
20260904101513 59 188 2.0 3.0 0.00 0.00 0.00 50 1018.4
20260904101410 59 188 2.0 3.0 0.00 0.00 0.00 50 1018.5
20260904101310 59 188 2.0 3.0 0.00 0.00 0.00 50 1018.5
20260904101209 59 188 2.0 3.0 0.00 0.00 0.00 50 1018.5
20260904101147 59 188 2.0 3.0 0.00 0.00 0.00 50 1018.5
20260904101109 59 188 2.0 3.0 0.00 0.00 0.00 50 1018.4
20260904101008 59 188 2.0 3.0 0.00 0.00 0.00 50 1018.5
20260904100907 59 188 2.0 3.0 0.00 0.00 0.00 51 1018.5
20260904100806 59 188 1.0 3.0 0.00 0.00 0.00 51 1018.5
20260904100705 59 188 1.0 3.0 0.00 0.00 0.00 50 1018.5
20260904100641 59 188 1.0 3.0 0.00 0.00 0.00 50 1018.5
20260904100604 59 188 1.0 3.0 0.00 0.00 0.00 51 1018.5
20260904100501 59 188 1.0 3.0 0.00 0.00 0.00 50 1018.5
20260904100413 59 188 0.0 3.0 0.00 0.00 0.00 51 1018.5
20260904100135 59 188 0.0 2.0 0.00 0.00 0.00 51 1018.4
20260904095900 59 188 0.0 2.0 0.00 0.00 0.00 51 1018.4
20260904095653 59 188 0.0 2.0 0.00 0.00 0.00 52 1018.4
20260904095630 59 188 1.0 2.0 0.00 0.00 0.00 52 1018.4
20260904095552 59 188 1.0 2.0 0.00 0.00 0.00 52 1018.4
20260904095449 59 188 1.0 2.0 0.00 0.00 0.00 52 1018.4
20260904095355 59 188 1.0 2.0 0.00 0.00 0.00 52 1018.3
20260904095148 59 188 1.0 2.0 0.00 0.00 0.00 52 1018.3
20260904095123 59 188 1.0 3.0 0.00 0.00 0.00 52 1018.1
20260904095046 59 188 1.0 3.0 0.00 0.00 0.00 52 1018.1
20260904094943 59 188 1.0 3.0 0.00 0.00 0.00 52 1018.1
20260904094840 59 188 1.0 3.0 0.00 0.00 0.00 52 1018.1
20260904094739 59 188 1.0 3.0 0.00 0.00 0.00 53 1018.1
20260904094618 59 188 1.0 3.0 0.00 0.00 0.00 52 1018.1
20260904094537 59 188 1.0 3.0 0.00 0.00 0.00 52 1018.3
20260904094437 59 188 1.0 3.0 0.00 0.00 0.00 52 1018.1
20260904094334 59 188 1.0 3.0 0.00 0.00 0.00 52 1018.1
20260904094233 59 180 1.0 3.0 0.00 0.00 0.00 52 1018.3
20260904094142 59 180 1.0 3.0 0.00 0.00 0.00 52 1018.3
20260904093827 59 44 1.0 2.0 0.00 0.00 0.00 52 1018.3
20260904093726 59 44 1.0 2.0 0.00 0.00 0.00 52 1018.3
20260904093604 59 44 1.0 2.0 0.00 0.00 0.00 52 1018.1
20260904093525 59 44 1.0 2.0 0.00 0.00 0.00 52 1018.1
20260904093425 59 44 1.0 2.0 0.00 0.00 0.00 53 1018.1
20260904093322 59 44 1.0 2.0 0.00 0.00 0.00 53 1018.1
20260904093222 59 44 1.0 2.0 0.00 0.00 0.00 52 1018.1
20260904093122 59 44 1.0 2.0 0.00 0.00 0.00 52 1018.1
20260904093058 59 44 1.0 2.0 0.00 0.00 0.00 52 1018.1
20260904093021 60 44 0.0 2.0 0.00 0.00 0.00 52 1018.1
20260904092919 60 44 0.0 2.0 0.00 0.00 0.00 52 1018.1
20260904092818 60 44 0.0 2.0 0.00 0.00 0.00 52 1018.1
20260904092717 60 44 0.0 2.0 0.00 0.00 0.00 52 1018.1
20260904092617 60 44 0.0 2.0 0.00 0.00 0.00 53 1018.1
20260904092553 60 44 0.0 2.0 0.00 0.00 0.00 52 1018.1
20260904092520 60 44 0.0 3.0 0.00 0.00 0.00 52 1018.1
20260904092314 60 44 1.0 4.0 0.00 0.00 0.00 52 1018.1
20260904092212 60 44 1.0 4.0 0.00 0.00 0.00 52 1018.0
20260904092113 60 44 1.0 4.0 0.00 0.00 0.00 52 1018.0
20260904092046 60 44 1.0 4.0 0.00 0.00 0.00 52 1018.0
20260904092010 60 44 1.0 4.0 0.00 0.00 0.00 52 1018.1
20260904091908 60 44 1.0 4.0 0.00 0.00 0.00 52 1018.0
20260904091808 60 44 1.0 4.0 0.00 0.00 0.00 52 1018.1
20260904091721 60 44 1.0 4.0 0.00 0.00 0.00 53 1018.1
20260904091714 60 44 1.0 4.0 0.00 0.00 0.00 53 1018.1
20260904091400 60 51 0.0 3.0 0.00 0.00 0.00 53 1018.1
20260904091258 60 186 0.0 2.0 0.00 0.00 0.00 52 1018.1
20260904091157 60 186 0.0 2.0 0.00 0.00 0.00 52 1018.1
20260904091035 60 186 0.0 2.0 0.00 0.00 0.00 51 1018.1
20260904090958 60 186 0.0 2.0 0.00 0.00 0.00 51 1018.1
20260904090855 60 186 0.0 2.0 0.00 0.00 0.00 51 1018.1
20260904090755 60 186 0.0 2.0 0.00 0.00 0.00 51 1018.0
20260904090743 60 186 0.0 2.0 0.00 0.00 0.00 51 1018.1
20260904090451 60 186 0.0 2.0 0.00 0.00 0.00 50 1018.1
20260904090357 60 186 0.0 2.0 0.00 0.00 0.00 50 1018.1
20260904090147 60 186 0.0 0.0 0.00 0.00 0.00 50 1018.0
20260904090022 60 186 0.0 0.0 0.00 0.00 0.00 50 1018.0
20260904085945 60 186 0.0 0.0 0.00 0.00 0.00 50 1018.0
20260904085843 60 186 0.0 0.0 0.00 0.00 0.00 50 1017.9
20260904085745 60 186 0.0 0.0 0.00 0.00 0.00 50 1018.0
20260904085516 60 186 0.0 0.0 0.00 0.00 0.00 50 1018.0
20260904085437 60 186 0.0 0.0 0.00 0.00 0.00 50 1018.0
20260904085337 60 186 0.0 1.0 0.00 0.00 0.00 50 1018.0
20260904085238 60 186 0.0 2.0 0.00 0.00 0.00 50 1018.0
20260904085140 60 186 1.0 3.0 0.00 0.00 0.00 50 1018.0
20260904085011 60 186 1.0 4.0 0.00 0.00 0.00 50 1018.0
20260904084933 60 186 1.0 4.0 0.00 0.00 0.00 50 1018.0
20260904084831 60 186 1.0 4.0 0.00 0.00 0.00 49 1018.0
20260904084738 60 186 1.0 4.0 0.00 0.00 0.00 50 1018.0
20260904084505 60 186 2.0 4.0 0.00 0.00 0.00 50 1018.0
20260904084428 60 186 2.0 4.0 0.00 0.00 0.00 50 1018.0
20260904084326 60 186 2.0 4.0 0.00 0.00 0.00 50 1018.0
20260904084226 61 186 2.0 4.0 0.00 0.00 0.00 50 1017.9
20260904084037 61 186 2.0 3.0 0.00 0.00 0.00 50 1017.9
20260904084031 61 186 2.0 3.0 0.00 0.00 0.00 50 1017.9
20260904083714 61 19 1.0 3.0 0.00 0.00 0.00 50 1017.9
20260904083620 61 19 1.0 3.0 0.00 0.00 0.00 50 1017.9
20260904083453 61 19 1.0 3.0 0.00 0.00 0.00 51 1017.9
20260904083413 61 19 1.0 3.0 0.00 0.00 0.00 51 1017.9
20260904083313 61 19 1.0 3.0 0.00 0.00 0.00 50 1017.9
20260904083207 61 19 1.0 3.0 0.00 0.00 0.00 50 1017.9
20260904083107 61 19 1.0 3.0 0.00 0.00 0.00 50 1017.9
20260904083054 61 19 0.0 3.0 0.00 0.00 0.00 50 1017.9
20260904082915 61 19 0.0 3.0 0.00 0.00 0.00 50 1017.9
20260904082703 61 19 0.0 2.0 0.00 0.00 0.00 51 1017.9
20260904082604 61 19 0.0 1.0 0.00 0.00 0.00 51 1017.9
20260904082514 61 19 0.0 1.0 0.00 0.00 0.00 50 1017.9
20260904082507 61 19 0.0 0.0 0.00 0.00 0.00 50 1017.9
20260904082300 62 19 0.0 0.0 0.00 0.00 0.00 50 1017.9
20260904082202 62 19 0.0 0.0 0.00 0.00 0.00 50 1017.9
20260904082059 62 19 0.0 1.0 0.00 0.00 0.00 50 1017.9
20260904082008 62 19 0.0 1.0 0.00 0.00 0.00 50 1017.8
20260904082002 62 19 0.0 1.0 0.00 0.00 0.00 50 1017.9
20260904081755 62 19 0.0 2.0 0.00 0.00 0.00 50 1017.8
20260904081655 62 19 1.0 2.0 0.00 0.00 0.00 50 1017.9
20260904081553 62 19 1.0 3.0 0.00 0.00 0.00 50 1017.9
20260904081536 62 19 1.0 5.0 0.00 0.00 0.00 50 1017.8
20260904081357 62 19 1.0 5.0 0.00 0.00 0.00 49 1017.8
20260904081043 62 19 2.0 5.0 0.00 0.00 0.00 49 1017.8
20260904080923 62 19 2.0 5.0 0.00 0.00 0.00 50 1017.9
20260904080844 62 19 2.0 5.0 0.00 0.00 0.00 50 1017.9
20260904080745 62 19 2.0 5.0 0.00 0.00 0.00 50 1017.9
20260904080544 62 34 1.0 5.0 0.00 0.00 0.00 52 1017.9
20260904080417 62 29 1.0 4.0 0.00 0.00 0.00 52 1017.8
20260904080337 62 37 0.0 4.0 0.00 0.00 0.00 52 1017.8
20260904080238 62 99 0.0 2.0 0.00 0.00 0.00 51 1017.8
20260904080132 62 99 0.0 2.0 0.00 0.00 0.00 51 1017.8
20260904080049 63 99 1.0 2.0 0.00 0.00 0.00 50 1017.8
20260904075935 63 99 1.0 2.0 0.00 0.00 0.00 50 1017.8
20260904075731 63 99 1.0 2.0 0.00 0.00 0.00 50 1017.8
20260904075627 63 99 1.0 2.0 0.00 0.00 0.00 49 1017.8
20260904075534 63 99 1.0 2.0 0.00 0.00 0.00 49 1017.8
20260904075404 63 99 1.0 2.0 0.00 0.00 0.00 49 1017.8
20260904075328 63 99 1.0 2.0 0.00 0.00 0.00 49 1017.8
20260904075226 63 99 1.0 2.0 0.00 0.00 0.00 49 1017.8
20260904075126 63 99 1.0 2.0 0.00 0.00 0.00 49 1017.8
20260904075023 63 99 1.0 2.0 0.00 0.00 0.00 49 1017.8
20260904074923 63 99 0.0 2.0 0.00 0.00 0.00 48 1017.7
20260904074859 63 99 0.0 2.0 0.00 0.00 0.00 48 1017.7
20260904074827 63 99 0.0 2.0 0.00 0.00 0.00 48 1017.8
20260904074620 63 99 0.0 2.0 0.00 0.00 0.00 48 1017.7
20260904074517 63 99 0.0 2.0 0.00 0.00 0.00 47 1017.8
20260904074417 63 99 0.0 0.0 0.00 0.00 0.00 47 1017.7
20260904074352 63 99 0.0 0.0 0.00 0.00 0.00 47 1017.7
20260904074316 63 99 0.0 0.0 0.00 0.00 0.00 46 1017.7
20260904074214 63 99 0.0 0.0 0.00 0.00 0.00 46 1017.8
20260904074114 63 99 0.0 0.0 0.00 0.00 0.00 46 1017.7
20260904074012 64 99 0.0 0.0 0.00 0.00 0.00 46 1017.7
20260904073911 64 99 0.0 1.0 0.00 0.00 0.00 46 1017.8
20260904073847 64 99 0.0 1.0 0.00 0.00 0.00 46 1017.8
20260904073809 64 99 0.0 2.0 0.00 0.00 0.00 46 1017.7
20260904073707 64 99 0.0 2.0 0.00 0.00 0.00 46 1017.7
20260904073608 64 99 0.0 2.0 0.00 0.00 0.00 46 1017.7
20260904073505 64 99 0.0 2.0 0.00 0.00 0.00 45 1017.7
20260904073448 64 99 0.0 2.0 0.00 0.00 0.00 46 1017.7
20260904073304 64 99 0.0 2.0 0.00 0.00 0.00 45 1017.8
20260904073209 64 99 0.0 3.0 0.00 0.00 0.00 46 1017.8
20260904072959 64 99 1.0 3.0 0.00 0.00 0.00 45 1017.7
20260904072900 64 99 1.0 3.0 0.00 0.00 0.00 45 1017.7
20260904072835 64 99 1.0 3.0 0.00 0.00 0.00 45 1017.8
20260904072758 64 99 1.0 3.0 0.00 0.00 0.00 45 1017.8
20260904072655 64 99 1.0 3.0 0.00 0.00 0.00 44 1017.8
20260904072555 64 99 1.0 3.0 0.00 0.00 0.00 45 1017.8
20260904072454 64 99 1.0 3.0 0.00 0.00 0.00 45 1017.8
20260904072435 64 99 1.0 3.0 0.00 0.00 0.00 45 1017.8
20260904072251 64 99 1.0 3.0 0.00 0.00 0.00 45 1017.8
20260904072149 64 298 1.0 3.0 0.00 0.00 0.00 45 1017.9
20260904072049 64 298 1.0 3.0 0.00 0.00 0.00 45 1017.8
20260904071947 65 298 1.0 3.0 0.00 0.00 0.00 44 1017.8
20260904071845 65 298 1.0 3.0 0.00 0.00 0.00 44 1017.8
20260904071827 65 298 1.0 3.0 0.00 0.00 0.00 43 1017.9
20260904071802 65 298 1.0 3.0 0.00 0.00 0.00 43 1017.9
20260904071648 65 298 1.0 3.0 0.00 0.00 0.00 43 1017.9
20260904071237 65 298 1.0 4.0 0.00 0.00 0.00 43 1017.9
20260904071137 65 298 1.0 4.0 0.00 0.00 0.00 43 1017.9
20260904071031 65 298 1.0 4.0 0.00 0.00 0.00 43 1017.9
20260904070931 65 298 2.0 4.0 0.00 0.00 0.00 43 1017.8
20260904070824 65 298 2.0 4.0 0.00 0.00 0.00 43 1017.8
20260904070731 65 298 2.0 4.0 0.00 0.00 0.00 43 1017.9
20260904070632 65 168 2.0 4.0 0.00 0.00 0.00 43 1017.9
20260904070527 65 168 2.0 4.0 0.00 0.00 0.00 43 1017.9
20260904070425 65 168 3.0 4.0 0.00 0.00 0.00 43 1018.0
20260904070329 65 168 3.0 5.0 0.00 0.00 0.00 43 1017.9
20260904070325 66 168 3.0 5.0 0.00 0.00 0.00 43 1017.9
20260904070232 65 165 3.0 5.0 0.00 0.00 0.00 42 1017.9
20260904070038 65 291 2.0 5.0 0.00 0.00 0.00 43 1017.9
20260904065820 65 291 2.0 5.0 0.00 0.00 0.00 43 1017.9
20260904065719 65 291 2.0 5.0 0.00 0.00 0.00 43 1017.9
20260904065619 65 291 2.0 5.0 0.00 0.00 0.00 44 1017.9
20260904065516 65 291 2.0 6.0 0.00 0.00 0.00 44 1018.0
20260904065426 65 313 2.0 6.0 0.00 0.00 0.00 44 1018.0
20260904065419 65 313 2.0 6.0 0.00 0.00 0.00 44 1018.0
20260904065218 65 159 2.0 7.0 0.00 0.00 0.00 44 1018.0
20260904065011 65 159 3.0 8.0 0.00 0.00 0.00 44 1018.0
20260904064909 65 159 3.0 8.0 0.00 0.00 0.00 43 1018.0
20260904064807 65 159 3.0 8.0 0.00 0.00 0.00 43 1018.0
20260904064707 65 159 3.0 8.0 0.00 0.00 0.00 44 1018.0
20260904064605 65 159 3.0 8.0 0.00 0.00 0.00 44 1018.0
20260904064516 65 150 2.0 8.0 0.00 0.00 0.00 44 1018.1
20260904064509 65 168 2.0 8.0 0.00 0.00 0.00 44 1018.1
20260904064158 65 159 3.0 8.0 0.00 0.00 0.00 43 1018.3
20260904064057 65 228 3.0 6.0 0.00 0.00 0.00 42 1018.1
20260904063955 65 246 3.0 6.0 0.00 0.00 0.00 42 1018.1
20260904063930 65 253 3.0 6.0 0.00 0.00 0.00 43 1018.1
20260904063755 65 235 3.0 6.0 0.00 0.00 0.00 43 1018.1
20260904063703 65 211 3.0 6.0 0.00 0.00 0.00 42 1018.1
20260904063349 65 165 3.0 6.0 0.00 0.00 0.00 42 1018.3
20260904063323 65 165 2.0 6.0 0.00 0.00 0.00 42 1018.3
20260904063254 65 165 2.0 6.0 0.00 0.00 0.00 42 1018.3
20260904063045 65 161 2.0 6.0 0.00 0.00 0.00 42 1018.3
20260904062939 66 168 2.0 6.0 0.00 0.00 0.00 41 1018.3
20260904062821 66 196 1.0 4.0 0.00 0.00 0.00 41 1018.3
20260904062739 66 196 1.0 4.0 0.00 0.00 0.00 41 1018.3
20260904062639 66 196 2.0 3.0 0.00 0.00 0.00 41 1018.3
20260904062549 66 196 2.0 4.0 0.00 0.00 0.00 41 1018.4
20260904062321 66 196 2.0 5.0 0.00 0.00 0.00 41 1018.3
20260904062233 66 196 2.0 5.0 0.00 0.00 0.00 41 1018.3
20260904062134 66 196 3.0 5.0 0.00 0.00 0.00 41 1018.3
20260904062034 66 196 3.0 5.0 0.00 0.00 0.00 41 1018.3
20260904061929 66 196 3.0 5.0 0.00 0.00 0.00 41 1018.3
20260904061821 67 196 3.0 5.0 0.00 0.00 0.00 41 1018.3
20260904061727 67 196 3.0 5.0 0.00 0.00 0.00 41 1018.3
20260904061634 67 196 3.0 5.0 0.00 0.00 0.00 41 1018.3
20260904061425 67 200 2.0 5.0 0.00 0.00 0.00 41 1018.3
20260904061339 67 152 2.0 4.0 0.00 0.00 0.00 41 1018.4
20260904060926 67 154 2.0 4.0 0.00 0.00 0.00 41 1018.4
20260904060919 67 154 3.0 4.0 0.00 0.00 0.00 41 1018.3
20260904060716 67 154 3.0 5.0 0.00 0.00 0.00 41 1018.4
20260904060614 68 154 3.0 5.0 0.00 0.00 0.00 41 1018.4
20260904060513 68 154 3.0 5.0 0.00 0.00 0.00 41 1018.4
20260904060409 68 154 3.0 5.0 0.00 0.00 0.00 40 1018.4
20260904060321 68 154 3.0 5.0 0.00 0.00 0.00 40 1018.4
20260904060314 68 139 3.0 7.0 0.00 0.00 0.00 40 1018.4
20260904060107 68 144 3.0 7.0 0.00 0.00 0.00 40 1018.4
20260904060006 68 144 3.0 7.0 0.00 0.00 0.00 40 1018.5
20260904055902 68 144 3.0 7.0 0.00 0.00 0.00 40 1018.5
20260904055820 68 144 3.0 7.0 0.00 0.00 0.00 40 1018.5
20260904055800 68 123 3.0 7.0 0.00 0.00 0.00 40 1018.5
20260904055708 69 144 3.0 7.0 0.00 0.00 0.00 40 1018.5
20260904055501 69 166 4.0 7.0 0.00 0.00 0.00 40 1018.5
20260904055358 69 137 4.0 12.0 0.00 0.00 0.00 39 1018.5
20260904055315 69 121 5.0 14.0 0.00 0.00 0.00 39 1018.6
20260904055258 69 132 5.0 14.0 0.00 0.00 0.00 40 1018.6
20260904055158 69 148 5.0 14.0 0.00 0.00 0.00 39 1018.5
20260904055055 69 148 5.0 14.0 0.00 0.00 0.00 39 1018.5
20260904054953 69 148 5.0 14.0 0.00 0.00 0.00 39 1018.5
20260904054916 69 169 6.0 14.0 0.00 0.00 0.00 39 1018.4
20260904054747 69 140 6.0 14.0 0.00 0.00 0.00 39 1018.5
20260904054647 68 144 6.0 14.0 0.00 0.00 0.00 39 1018.6
20260904054548 68 134 6.0 14.0 0.00 0.00 0.00 39 1018.5
20260904054447 68 132 5.0 14.0 0.00 0.00 0.00 39 1018.6
20260904054352 68 133 4.0 13.0 0.00 0.00 0.00 40 1018.6
20260904054346 68 115 4.0 13.0 0.00 0.00 0.00 40 1018.5
20260904054149 67 146 4.0 9.0 0.00 0.00 0.00 39 1018.4
20260904053941 67 124 2.0 8.0 0.00 0.00 0.00 39 1018.3
20260904053904 67 140 2.0 5.0 0.00 0.00 0.00 39 1018.3
20260904053750 67 150 2.0 5.0 0.00 0.00 0.00 39 1018.1
20260904053435 67 193 2.0 4.0 0.00 0.00 0.00 39 1017.9
20260904053341 68 219 2.0 4.0 0.00 0.00 0.00 38 1017.9
20260904053334 68 219 2.0 5.0 0.00 0.00 0.00 38 1017.9
20260904053130 68 214 2.0 5.0 0.00 0.00 0.00 38 1017.9
20260904053029 68 214 2.0 5.0 0.00 0.00 0.00 38 1017.9
20260904052930 68 214 2.0 5.0 0.00 0.00 0.00 38 1017.9
20260904052851 68 214 2.0 5.0 0.00 0.00 0.00 38 1017.9
20260904052723 68 221 2.0 5.0 0.00 0.00 0.00 39 1017.9
20260904052624 68 205 1.0 5.0 0.00 0.00 0.00 39 1017.9
20260904052530 68 215 1.0 5.0 0.00 0.00 0.00 39 1017.8
20260904052332 69 178 1.0 5.0 0.00 0.00 0.00 39 1017.8
20260904052326 69 190 1.0 3.0 0.00 0.00 0.00 39 1017.8
20260904052130 69 190 1.0 4.0 0.00 0.00 0.00 39 1017.9
20260904051826 69 190 1.0 4.0 0.00 0.00 0.00 39 1017.9
20260904051819 69 190 1.0 4.0 0.00 0.00 0.00 38 1017.8
20260904051620 69 190 2.0 4.0 0.00 0.00 0.00 38 1017.8
20260904051414 69 190 2.0 4.0 0.00 0.00 0.00 37 1017.8
20260904051205 69 190 2.0 4.0 0.00 0.00 0.00 37 1017.8
20260904051105 69 190 2.0 5.0 0.00 0.00 0.00 37 1017.8
20260904051006 69 190 2.0 5.0 0.00 0.00 0.00 37 1017.8
20260904050906 69 190 2.0 5.0 0.00 0.00 0.00 37 1017.8
20260904050806 69 190 2.0 5.0 0.00 0.00 0.00 37 1017.8
20260904050731 69 190 2.0 5.0 0.00 0.00 0.00 37 1017.8
20260904050703 69 190 2.0 5.0 0.00 0.00 0.00 36 1017.8
20260904050603 69 190 2.0 5.0 0.00 0.00 0.00 36 1017.8
20260904050501 69 190 2.0 5.0 0.00 0.00 0.00 36 1017.8
20260904050359 69 190 2.0 5.0 0.00 0.00 0.00 36 1017.8
20260904050309 70 190 1.0 5.0 0.00 0.00 0.00 36 1017.8
20260904050303 70 196 1.0 5.0 0.00 0.00 0.00 36 1017.8
20260904050055 70 233 1.0 3.0 0.00 0.00 0.00 36 1017.8
20260904045955 70 233 1.0 3.0 0.00 0.00 0.00 36 1017.7
20260904045853 70 233 1.0 3.0 0.00 0.00 0.00 36 1017.8
20260904045747 70 233 1.0 3.0 0.00 0.00 0.00 36 1017.7
20260904045730 70 233 2.0 3.0 0.00 0.00 0.00 35 1017.8
20260904045647 70 233 2.0 3.0 0.00 0.00 0.00 36 1017.8
20260904045547 70 233 2.0 3.0 0.00 0.00 0.00 35 1017.8
20260904045447 70 233 2.0 3.0 0.00 0.00 0.00 36 1017.7
20260904045347 71 233 2.0 3.0 0.00 0.00 0.00 35 1017.7
20260904045245 71 248 1.0 3.0 0.00 0.00 0.00 35 1017.7
20260904045041 71 248 1.0 3.0 0.00 0.00 0.00 35 1017.7
20260904044941 71 248 1.0 3.0 0.00 0.00 0.00 35 1017.7
20260904044841 71 248 1.0 3.0 0.00 0.00 0.00 35 1017.7
20260904044731 71 260 1.0 3.0 0.00 0.00 0.00 35 1017.7
20260904044636 71 192 1.0 3.0 0.00 0.00 0.00 35 1017.7
20260904044535 71 192 1.0 2.0 0.00 0.00 0.00 34 1017.7
20260904044436 71 192 1.0 3.0 0.00 0.00 0.00 34 1017.7
20260904044335 71 192 1.0 3.0 0.00 0.00 0.00 34 1017.8
20260904044229 72 192 1.0 3.0 0.00 0.00 0.00 35 1017.8
20260904044136 72 192 1.0 3.0 0.00 0.00 0.00 34 1017.8
20260904043941 72 192 1.0 3.0 0.00 0.00 0.00 34 1017.8
20260904043828 72 192 1.0 3.0 0.00 0.00 0.00 34 1017.7
20260904043630 73 192 1.0 3.0 0.00 0.00 0.00 34 1017.7
20260904043423 73 232 1.0 3.0 0.00 0.00 0.00 33 1017.7
20260904043324 73 232 1.0 5.0 0.00 0.00 0.00 33 1017.7
20260904043224 73 172 2.0 5.0 0.00 0.00 0.00 33 1017.7
20260904043121 74 172 2.0 6.0 0.00 0.00 0.00 33 1017.7
20260904043021 74 172 2.0 6.0 0.00 0.00 0.00 33 1017.8
20260904042920 74 172 2.0 6.0 0.00 0.00 0.00 33 1017.8
20260904042817 74 172 3.0 6.0 0.00 0.00 0.00 33 1017.8
20260904042713 74 172 3.0 6.0 0.00 0.00 0.00 33 1017.8
20260904042625 74 172 3.0 6.0 0.00 0.00 0.00 32 1017.8
20260904042311 75 169 3.0 8.0 0.00 0.00 0.00 32 1017.8
20260904042224 75 169 4.0 8.0 0.00 0.00 0.00 32 1017.8
20260904042210 75 167 4.0 8.0 0.00 0.00 0.00 32 1017.8
20260904042110 75 173 4.0 9.0 0.00 0.00 0.00 32 1017.8
20260904042009 75 173 4.0 9.0 0.00 0.00 0.00 32 1017.8
20260904041907 75 195 4.0 9.0 0.00 0.00 0.00 32 1017.8
20260904041805 75 200 4.0 9.0 0.00 0.00 0.00 33 1017.8
20260904041723 76 258 5.0 9.0 0.00 0.00 0.00 33 1017.8
20260904041701 76 258 5.0 9.0 0.00 0.00 0.00 33 1017.8
20260904041559 76 258 5.0 9.0 0.00 0.00 0.00 32 1017.7
20260904041506 76 257 5.0 10.0 0.00 0.00 0.00 32 1017.7
20260904041259 76 292 6.0 11.0 0.00 0.00 0.00 31 1017.5
20260904041223 76 259 6.0 11.0 0.00 0.00 0.00 31 1017.7
20260904041153 76 284 6.0 11.0 0.00 0.00 0.00 31 1017.7
20260904041053 76 285 6.0 11.0 0.00 0.00 0.00 31 1017.7
20260904040953 76 308 6.0 13.0 0.00 0.00 0.00 31 1017.7
20260904040854 76 319 7.0 13.0 0.00 0.00 0.00 31 1017.7
20260904040753 76 309 7.0 13.0 0.00 0.00 0.00 31 1017.5
20260904040723 76 284 7.0 13.0 0.00 0.00 0.00 31 1017.5
20260904040651 76 298 7.0 13.0 0.00 0.00 0.00 31 1017.5
20260904040559 76 292 7.0 13.0 0.00 0.00 0.00 31 1017.5
20260904040349 76 284 7.0 13.0 0.00 0.00 0.00 31 1017.5
20260904040249 76 311 7.0 13.0 0.00 0.00 0.00 30 1017.5
20260904040222 76 324 7.0 13.0 0.00 0.00 0.00 30 1017.5
20260904040150 76 315 7.0 13.0 0.00 0.00 0.00 30 1017.5
20260904040049 76 308 7.0 13.0 0.00 0.00 0.00 30 1017.5
20260904035949 77 282 8.0 12.0 0.00 0.00 0.00 30 1017.5
20260904035849 77 300 8.0 13.0 0.00 0.00 0.00 30 1017.5
20260904035750 77 291 8.0 13.0 0.00 0.00 0.00 30 1017.5
20260904035723 77 305 9.0 13.0 0.00 0.00 0.00 30 1017.5
20260904035649 77 298 9.0 13.0 0.00 0.00 0.00 31 1017.5
20260904035621 77 282 9.0 13.0 0.00 0.00 0.00 30 1017.7
20260904035614 77 298 9.0 15.0 0.00 0.00 0.00 30 1017.5
20260904035050 77 304 9.0 15.0 0.00 0.00 0.00 31 1017.5
20260904034943 77 296 9.0 15.0 0.00 0.00 0.00 31 1017.5
20260904034843 77 304 9.0 15.0 0.00 0.00 0.00 31 1017.5
20260904034744 77 311 10.0 15.0 0.00 0.00 0.00 31 1017.5
20260904034722 77 303 10.0 15.0 0.00 0.00 0.00 31 1017.5
20260904034644 77 307 10.0 15.0 0.00 0.00 0.00 31 1017.5
20260904034544 77 313 10.0 15.0 0.00 0.00 0.00 31 1017.5
20260904034438 77 300 11.0 16.0 0.00 0.00 0.00 31 1017.5
20260904034338 77 311 11.0 16.0 0.00 0.00 0.00 31 1017.5
20260904034237 77 301 11.0 16.0 0.00 0.00 0.00 31 1017.5
20260904034222 77 304 11.0 16.0 0.00 0.00 0.00 31 1017.5
20260904034138 77 288 11.0 16.0 0.00 0.00 0.00 31 1017.4
20260904034042 77 304 10.0 16.0 0.00 0.00 0.00 31 1017.5
20260904033729 77 323 10.0 16.0 0.00 0.00 0.00 31 1017.4
20260904033722 77 296 10.0 16.0 0.00 0.00 0.00 30 1017.4
20260904033629 77 320 10.0 16.0 0.00 0.00 0.00 31 1017.4
20260904033530 77 315 9.0 16.0 0.00 0.00 0.00 31 1017.3
20260904033323 77 299 9.0 15.0 0.00 0.00 0.00 31 1017.3
20260904033229 77 298 9.0 16.0 0.00 0.00 0.00 30 1017.3
20260904033224 77 289 9.0 16.0 0.00 0.00 0.00 30 1017.3
20260904033123 77 302 10.0 16.0 0.00 0.00 0.00 31 1017.3
20260904033024 77 314 10.0 16.0 0.00 0.00 0.00 31 1017.3
20260904032924 77 307 10.0 16.0 0.00 0.00 0.00 31 1017.4
20260904032835 77 306 11.0 18.0 0.00 0.00 0.00 31 1017.3
20260904032829 77 331 11.0 18.0 0.00 0.00 0.00 31 1017.4
20260904032624 77 322 11.0 19.0 0.00 0.00 0.00 30 1017.4
20260904032523 77 275 12.0 19.0 0.00 0.00 0.00 30 1017.3
20260904032424 77 323 12.0 19.0 0.00 0.00 0.00 30 1017.4
20260904032323 77 302 12.0 19.0 0.00 0.00 0.00 30 1017.4
20260904032227 77 292 12.0 19.0 0.00 0.00 0.00 30 1017.4
20260904032223 77 279 12.0 19.0 0.00 0.00 0.00 30 1017.4
20260904032124 77 282 12.0 19.0 0.00 0.00 0.00 30 1017.4
20260904032023 77 317 12.0 19.0 0.00 0.00 0.00 30 1017.4
20260904031923 77 294 11.0 19.0 0.00 0.00 0.00 30 1017.4
20260904031824 77 326 12.0 19.0 0.00 0.00 0.00 30 1017.4
20260904031724 77 311 11.0 19.0 0.00 0.00 0.00 30 1017.4
20260904031719 77 290 11.0 18.0 0.00 0.00 0.00 30 1017.4
20260904031619 77 310 12.0 18.0 0.00 0.00 0.00 30 1017.4
20260904031519 77 315 12.0 19.0 0.00 0.00 0.00 30 1017.4
20260904031419 77 289 12.0 19.0 0.00 0.00 0.00 31 1017.3
20260904031317 77 311 12.0 19.0 0.00 0.00 0.00 31 1017.3
20260904031223 77 285 12.0 19.0 0.00 0.00 0.00 31 1017.3
20260904031216 77 304 12.0 19.0 0.00 0.00 0.00 31 1017.3
20260904031115 77 333 12.0 19.0 0.00 0.00 0.00 30 1017.4
20260904031016 77 309 12.0 19.0 0.00 0.00 0.00 30 1017.4
20260904030931 77 303 12.0 19.0 0.00 0.00 0.00 31 1017.4
20260904030924 77 274 12.0 19.0 0.00 0.00 0.00 31 1017.4
20260904030613 77 305 12.0 19.0 0.00 0.00 0.00 31 1017.3
20260904030513 77 321 12.0 16.0 0.00 0.00 0.00 31 1017.4
20260904030414 77 319 12.0 16.0 0.00 0.00 0.00 31 1017.4
20260904030313 77 306 11.0 16.0 0.00 0.00 0.00 31 1017.3
20260904030222 77 311 11.0 16.0 0.00 0.00 0.00 31 1017.3
20260904030213 77 317 11.0 16.0 0.00 0.00 0.00 31 1017.3
20260904030113 77 305 11.0 16.0 0.00 0.00 0.00 31 1017.3
20260904030013 77 300 11.0 16.0 0.00 0.00 0.00 31 1017.3
20260904025914 77 304 11.0 16.0 0.00 0.00 0.00 31 1017.3
20260904025813 77 284 11.0 16.0 0.00 0.00 0.00 31 1017.3
20260904025723 77 301 10.0 16.0 0.00 0.00 0.00 31 1017.3
20260904025712 77 309 10.0 15.0 0.00 0.00 0.00 31 1017.3
20260904025611 77 306 10.0 15.0 0.00 0.00 0.00 31 1017.3
20260904025509 77 325 10.0 16.0 0.00 0.00 0.00 31 1017.3
20260904025410 77 303 10.0 16.0 0.00 0.00 0.00 31 1017.3
20260904025330 77 301 11.0 16.0 0.00 0.00 0.00 31 1017.3
20260904025207 77 299 11.0 16.0 0.00 0.00 0.00 31 1017.3
20260904025108 77 338 11.0 16.0 0.00 0.00 0.00 31 1017.2
20260904025015 77 326 12.0 16.0 0.00 0.00 0.00 31 1017.2
20260904024808 77 317 12.0 19.0 0.00 0.00 0.00 30 1017.2
20260904024723 77 294 12.0 19.0 0.00 0.00 0.00 30 1017.3
20260904024705 77 298 12.0 19.0 0.00 0.00 0.00 30 1017.3
20260904024605 77 306 13.0 19.0 0.00 0.00 0.00 30 1017.2
20260904024505 77 339 13.0 19.0 0.00 0.00 0.00 31 1017.2
20260904024406 77 325 13.0 19.0 0.00 0.00 0.00 30 1017.2
20260904024328 77 290 13.0 19.0 0.00 0.00 0.00 31 1017.3
20260904024203 77 336 12.0 19.0 0.00 0.00 0.00 31 1017.2
20260904024103 77 321 12.0 19.0 0.00 0.00 0.00 31 1017.2
20260904024003 77 308 12.0 19.0 0.00 0.00 0.00 30 1017.3
20260904023903 77 285 12.0 19.0 0.00 0.00 0.00 31 1017.3
20260904023803 77 308 12.0 17.0 0.00 0.00 0.00 30 1017.2
20260904023718 77 312 12.0 17.0 0.00 0.00 0.00 31 1017.2
20260904023708 77 300 12.0 17.0 0.00 0.00 0.00 31 1017.2
20260904023508 78 308 12.0 17.0 0.00 0.00 0.00 30 1017.3
20260904023255 78 292 12.0 17.0 0.00 0.00 0.00 30 1017.2
20260904023216 78 312 12.0 17.0 0.00 0.00 0.00 30 1017.2
20260904023155 78 306 12.0 17.0 0.00 0.00 0.00 30 1017.2
20260904023055 78 317 12.0 18.0 0.00 0.00 0.00 30 1017.2
20260904022955 78 275 12.0 18.0 0.00 0.00 0.00 30 1017.2
20260904022855 78 301 12.0 18.0 0.00 0.00 0.00 30 1017.2
20260904022805 78 300 12.0 18.0 0.00 0.00 0.00 30 1017.1
20260904022758 78 321 12.0 18.0 0.00 0.00 0.00 30 1017.1
20260904022553 78 297 12.0 18.0 0.00 0.00 0.00 30 1017.1
20260904022453 78 281 12.0 18.0 0.00 0.00 0.00 30 1017.1
20260904022354 78 302 13.0 18.0 0.00 0.00 0.00 30 1017.1
20260904022239 78 311 13.0 18.0 0.00 0.00 0.00 30 1017.1
20260904022205 78 329 13.0 18.0 0.00 0.00 0.00 30 1017.1
20260904022146 78 304 13.0 18.0 0.00 0.00 0.00 30 1017.1
20260904021939 78 293 12.0 18.0 0.00 0.00 0.00 30 1017.1
20260904021846 78 283 12.0 18.0 0.00 0.00 0.00 30 1017.1
20260904021705 78 302 12.0 18.0 0.00 0.00 0.00 30 1017.1
20260904021645 78 314 12.0 18.0 0.00 0.00 0.00 30 1017.1
20260904021439 78 300 11.0 18.0 0.00 0.00 0.00 30 1017.0
20260904021339 78 317 11.0 16.0 0.00 0.00 0.00 30 1017.0
20260904021239 78 311 10.0 16.0 0.00 0.00 0.00 29 1017.1
20260904021205 78 298 10.0 16.0 0.00 0.00 0.00 29 1017.1
20260904021139 78 303 10.0 16.0 0.00 0.00 0.00 29 1017.1
20260904021035 78 308 10.0 15.0 0.00 0.00 0.00 29 1017.1
20260904020935 78 292 9.0 15.0 0.00 0.00 0.00 29 1017.0
20260904020842 78 311 9.0 15.0 0.00 0.00 0.00 29 1017.0
20260904020705 78 304 9.0 15.0 0.00 0.00 0.00 29 1017.0
20260904020635 78 284 9.0 15.0 0.00 0.00 0.00 29 1017.0
20260904020534 78 322 9.0 15.0 0.00 0.00 0.00 28 1017.0
20260904020433 78 310 9.0 15.0 0.00 0.00 0.00 28 1017.0
20260904020333 78 313 9.0 15.0 0.00 0.00 0.00 28 1017.0
20260904020233 78 315 8.0 15.0 0.00 0.00 0.00 28 1017.0
20260904020203 78 290 8.0 15.0 0.00 0.00 0.00 28 1017.0
20260904020133 78 294 8.0 13.0 0.00 0.00 0.00 28 1017.0
20260904020033 78 282 8.0 13.0 0.00 0.00 0.00 28 1016.8
20260904015933 78 329 7.0 13.0 0.00 0.00 0.00 28 1016.8
20260904015832 78 325 7.0 13.0 0.00 0.00 0.00 28 1017.0
20260904015742 78 286 7.0 13.0 0.00 0.00 0.00 28 1016.8
20260904015735 78 281 7.0 13.0 0.00 0.00 0.00 28 1016.8
20260904015531 78 286 6.0 13.0 0.00 0.00 0.00 27 1016.8
20260904015431 78 318 6.0 11.0 0.00 0.00 0.00 27 1017.0
20260904015332 78 302 6.0 11.0 0.00 0.00 0.00 27 1017.0
20260904015244 78 276 6.0 11.0 0.00 0.00 0.00 27 1016.8
20260904015237 78 327 6.0 11.0 0.00 0.00 0.00 27 1016.8
20260904015032 78 333 6.0 11.0 0.00 0.00 0.00 27 1016.8
20260904014931 78 320 6.0 11.0 0.00 0.00 0.00 27 1016.8
20260904014849 78 311 6.0 11.0 0.00 0.00 0.00 27 1016.8
20260904014843 79 325 5.0 10.0 0.00 0.00 0.00 27 1017.0
20260904014531 79 314 5.0 10.0 0.00 0.00 0.00 27 1016.8
20260904014431 79 318 5.0 10.0 0.00 0.00 0.00 27 1016.8
20260904014332 79 328 5.0 10.0 0.00 0.00 0.00 27 1017.0
20260904014308 79 319 5.0 10.0 0.00 0.00 0.00 26 1016.8
20260904014131 79 332 5.0 9.0 0.00 0.00 0.00 26 1016.8
20260904014031 79 329 5.0 8.0 0.00 0.00 0.00 26 1016.8
20260904013927 79 300 5.0 8.0 0.00 0.00 0.00 26 1016.8
20260904013835 79 340 5.0 9.0 0.00 0.00 0.00 26 1016.8
20260904013701 79 313 5.0 9.0 0.00 0.00 0.00 26 1016.8
20260904013627 79 301 5.0 9.0 0.00 0.00 0.00 26 1016.8
20260904013528 79 319 5.0 9.0 0.00 0.00 0.00 26 1016.8
20260904013427 80 300 4.0 9.0 0.00 0.00 0.00 26 1016.8
20260904013327 80 328 4.0 9.0 0.00 0.00 0.00 26 1016.8
20260904013227 80 332 4.0 9.0 0.00 0.00 0.00 26 1016.8
20260904013156 80 306 4.0 9.0 0.00 0.00 0.00 26 1016.8
20260904013127 80 308 4.0 9.0 0.00 0.00 0.00 25 1016.8
20260904013027 80 304 4.0 9.0 0.00 0.00 0.00 26 1016.8
20260904012927 80 344 4.0 9.0 0.00 0.00 0.00 25 1016.8
20260904012827 80 319 3.0 7.0 0.00 0.00 0.00 25 1016.8
20260904012745 80 320 3.0 7.0 0.00 0.00 0.00 25 1016.8
20260904012738 80 304 3.0 7.0 0.00 0.00 0.00 25 1016.8
20260904012427 80 314 3.0 7.0 0.00 0.00 0.00 25 1016.8
20260904012327 80 315 3.0 5.0 0.00 0.00 0.00 25 1016.8
20260904012227 80 317 3.0 5.0 0.00 0.00 0.00 25 1016.8
20260904012156 80 299 3.0 5.0 0.00 0.00 0.00 25 1016.8
20260904012127 80 316 3.0 5.0 0.00 0.00 0.00 25 1016.8
20260904012023 80 340 3.0 5.0 0.00 0.00 0.00 25 1016.8
20260904011923 80 348 3.0 5.0 0.00 0.00 0.00 25 1016.8
20260904011824 80 337 2.0 5.0 0.00 0.00 0.00 25 1016.8
20260904011723 80 317 2.0 5.0 0.00 0.00 0.00 25 1016.8
20260904011656 80 317 2.0 5.0 0.00 0.00 0.00 25 1016.8
20260904011624 80 332 2.0 5.0 0.00 0.00 0.00 25 1016.8
20260904011530 80 304 2.0 5.0 0.00 0.00 0.00 25 1016.7
20260904011324 81 298 3.0 5.0 0.00 0.00 0.00 25 1016.8
20260904011223 81 333 2.0 5.0 0.00 0.00 0.00 25 1016.8
20260904011156 81 333 2.0 5.0 0.00 0.00 0.00 25 1016.8
20260904011123 81 348 3.0 5.0 0.00 0.00 0.00 25 1016.7
20260904011023 81 348 3.0 5.0 0.00 0.00 0.00 25 1016.7
20260904010923 81 309 3.0 5.0 0.00 0.00 0.00 25 1016.8
20260904010822 81 329 3.0 5.0 0.00 0.00 0.00 25 1016.7
20260904010804 81 329 3.0 6.0 0.00 0.00 0.00 25 1016.7
20260904010623 81 329 3.0 7.0 0.00 0.00 0.00 25 1016.7
20260904010523 81 329 3.0 7.0 0.00 0.00 0.00 25 1016.8
20260904010423 81 310 3.0 7.0 0.00 0.00 0.00 25 1016.8
20260904010324 81 306 3.0 7.0 0.00 0.00 0.00 26 1016.8
20260904010223 81 348 3.0 7.0 0.00 0.00 0.00 27 1016.8
20260904010156 82 348 3.0 7.0 0.00 0.00 0.00 27 1016.8
20260904010119 82 347 3.0 7.0 0.00 0.00 0.00 27 1016.8
20260904010019 82 311 3.0 7.0 0.00 0.00 0.00 27 1016.8
20260904005926 82 351 3.0 7.0 0.00 0.00 0.00 27 1016.8
20260904005719 82 32 3.0 7.0 0.00 0.00 0.00 26 1016.8
20260904005656 82 40 3.0 6.0 0.00 0.00 0.00 26 1016.8
20260904005626 82 32 3.0 6.0 0.00 0.00 0.00 26 1016.8
20260904005419 83 32 4.0 9.0 0.00 0.00 0.00 26 1016.8
20260904005320 83 44 4.0 9.0 0.00 0.00 0.00 26 1016.8
20260904005243 83 49 4.0 9.0 0.00 0.00 0.00 27 1016.8
20260904005236 83 45 4.0 9.0 0.00 0.00 0.00 27 1016.8
20260904004820 84 39 5.0 9.0 0.00 0.00 0.00 27 1016.8
20260904004759 84 39 5.0 9.0 0.00 0.00 0.00 25 1016.8
20260904004619 84 30 5.0 9.0 0.00 0.00 0.00 25 1016.8
20260904004519 84 42 5.0 9.0 0.00 0.00 0.00 24 1016.8
20260904004427 84 59 4.0 9.0 0.00 0.00 0.00 24 1016.8
20260904004215 84 33 4.0 9.0 0.00 0.00 0.00 24 1016.8
20260904004152 84 54 4.0 9.0 0.00 0.00 0.00 24 1016.8
20260904004115 84 63 4.0 9.0 0.00 0.00 0.00 25 1016.8
20260904004015 84 52 4.0 10.0 0.00 0.00 0.00 24 1016.8
20260904003915 84 19 5.0 10.0 0.00 0.00 0.00 24 1016.8
20260904003815 85 52 5.0 11.0 0.00 0.00 0.00 24 1016.8
20260904003715 85 78 5.0 11.0 0.00 0.00 0.00 23 1016.8
20260904003652 85 49 5.0 11.0 0.00 0.00 0.00 23 1016.8
20260904003615 85 44 5.0 11.0 0.00 0.00 0.00 23 1016.8
20260904003515 85 17 6.0 12.0 0.00 0.00 0.00 24 1016.8
20260904003430 85 44 6.0 12.0 0.00 0.00 0.00 24 1016.7
20260904003153 85 11 7.0 13.0 0.00 0.00 0.00 23 1016.7
20260904003115 85 41 7.0 14.0 0.00 0.00 0.00 23 1016.7
20260904003015 85 49 7.0 14.0 0.00 0.00 0.00 23 1016.7
20260904002914 86 23 7.0 14.0 0.00 0.00 0.00 24 1016.7
20260904002815 86 57 7.0 14.0 0.00 0.00 0.00 24 1016.7
20260904002726 86 78 7.0 14.0 0.00 0.00 0.00 23 1016.7
20260904002719 86 76 7.0 14.0 0.00 0.00 0.00 23 1016.7
20260904002515 86 33 7.0 14.0 0.00 0.00 0.00 23 1016.7
20260904002415 86 53 6.0 14.0 0.00 0.00 0.00 22 1016.7
20260904002311 86 69 6.0 14.0 0.00 0.00 0.00 22 1016.7
20260904002211 86 50 6.0 14.0 0.00 0.00 0.00 23 1016.7
20260904002152 86 55 6.0 14.0 0.00 0.00 0.00 23 1016.7
20260904002111 86 100 6.0 13.0 0.00 0.00 0.00 23 1016.7
20260904002011 86 46 5.0 13.0 0.00 0.00 0.00 23 1016.7
20260904001937 86 92 5.0 10.0 0.00 0.00 0.00 23 1016.7
20260904001822 86 74 5.0 12.0 0.00 0.00 0.00 23 1016.7
20260904001510 86 109 5.0 12.0 0.00 0.00 0.00 24 1016.7
20260904001411 86 41 5.0 12.0 0.00 0.00 0.00 24 1016.6
20260904001312 86 39 5.0 12.0 0.00 0.00 0.00 24 1016.6
20260904001211 86 49 5.0 12.0 0.00 0.00 0.00 23 1016.6
20260904001153 86 63 5.0 12.0 0.00 0.00 0.00 23 1016.6
20260904001111 86 68 5.0 12.0 0.00 0.00 0.00 23 1016.6
20260904001011 86 57 5.0 12.0 0.00 0.00 0.00 23 1016.6
20260904000911 86 63 5.0 12.0 0.00 0.00 0.00 23 1016.6
20260904000811 87 37 5.0 12.0 0.00 0.00 0.00 23 1016.6
20260904000710 87 103 6.0 12.0 0.00 0.00 0.00 24 1016.6
20260904000653 87 46 6.0 12.0 0.00 0.00 0.00 24 1016.6
20260904000611 87 78 6.0 12.0 0.00 0.00 0.00 23 1016.6
20260904000512 87 69 6.0 12.0 0.00 0.00 0.00 23 1016.6
20260904000406 87 42 6.0 12.0 0.00 0.00 0.00 23 1016.6
20260904000325 87 60 6.0 12.0 0.00 0.00 0.00 22 1016.6
20260904000318 87 68 6.0 12.0 0.00 0.00 0.00 21 1016.6
20260904000007 87 99 7.0 13.0 0.00 0.00 0.00 21 1016.6
20260903235907 87 72 7.0 14.0 0.00 0.00 0.00 22 1016.6
20260903235814 87 56 7.0 14.0 0.00 0.00 0.00 22 1016.6
20260903235653 88 34 7.0 14.0 0.00 0.00 0.00 22 1016.5
20260903235607 88 82 7.0 14.0 0.00 0.00 0.00 22 1016.6
20260903235506 88 90 8.0 14.0 0.00 0.00 0.00 22 1016.6
20260903235407 88 71 8.0 17.0 0.00 0.00 0.00 21 1016.6
20260903235308 88 77 8.0 17.0 0.00 0.00 0.00 22 1016.5
20260903235207 88 69 8.0 17.0 0.00 0.00 0.00 21 1016.6
20260903235151 88 57 8.0 17.0 0.00 0.00 0.00 21 1016.6
20260903235107 88 72 8.0 17.0 0.00 0.00 0.00 21 1016.6
20260903235007 88 50 7.0 17.0 0.00 0.00 0.00 21 1016.6
20260903234907 88 94 7.0 17.0 0.00 0.00 0.00 21 1016.6
20260903234806 89 53 7.0 17.0 0.00 0.00 0.00 21 1016.6
20260903234707 89 54 8.0 17.0 0.00 0.00 0.00 21 1016.6
20260903234650 89 52 8.0 17.0 0.00 0.00 0.00 21 1016.6
20260903234607 89 59 8.0 17.0 0.00 0.00 0.00 20 1016.6
20260903234501 89 97 8.0 17.0 0.00 0.00 0.00 21 1016.5
20260903234401 89 70 8.0 16.0 0.00 0.00 0.00 21 1016.6
20260903234258 89 5 9.0 16.0 0.00 0.00 0.00 20 1016.5
20260903234159 89 56 9.0 16.0 0.00 0.00 0.00 20 1016.6
20260903234150 89 63 9.0 16.0 0.00 0.00 0.00 20 1016.6
20260903234058 89 46 9.0 16.0 0.00 0.00 0.00 20 1016.5
20260903233953 89 49 9.0 16.0 0.00 0.00 0.00 20 1016.6
20260903233852 89 61 9.0 16.0 0.00 0.00 0.00 20 1016.6
20260903233804 89 76 9.0 16.0 0.00 0.00 0.00 20 1016.5
20260903233653 89 84 9.0 16.0 0.00 0.00 0.00 20 1016.6
20260903233552 89 29 8.0 14.0 0.00 0.00 0.00 20 1016.6
20260903233447 89 37 8.0 14.0 0.00 0.00 0.00 21 1016.5
20260903233345 89 88 7.0 13.0 0.00 0.00 0.00 20 1016.5
20260903233256 89 38 7.0 12.0 0.00 0.00 0.00 20 1016.5
20260903233250 89 38 6.0 12.0 0.00 0.00 0.00 20 1016.5
20260903233044 89 69 6.0 12.0 0.00 0.00 0.00 20 1016.5
20260903232939 90 51 5.0 11.0 0.00 0.00 0.00 21 1016.5
20260903232839 90 38 6.0 11.0 0.00 0.00 0.00 20 1016.6
20260903232749 89 57 6.0 13.0 0.00 0.00 0.00 19 1016.5
20260903232743 89 71 6.0 13.0 0.00 0.00 0.00 20 1016.5
20260903232537 89 76 5.0 13.0 0.00 0.00 0.00 20 1016.6
20260903232431 89 22 6.0 13.0 0.00 0.00 0.00 20 1016.5
20260903232330 89 25 6.0 15.0 0.00 0.00 0.00 20 1016.5
20260903232243 89 70 5.0 15.0 0.00 0.00 0.00 20 1016.5
20260903232236 89 74 5.0 15.0 0.00 0.00 0.00 19 1016.5
20260903232030 89 31 5.0 15.0 0.00 0.00 0.00 21 1016.5
20260903231931 89 339 6.0 15.0 0.00 0.00 0.00 19 1016.5
20260903231829 89 26 5.0 15.0 0.00 0.00 0.00 21 1016.6
20260903231729 89 22 6.0 15.0 0.00 0.00 0.00 21 1016.5
20260903231648 89 47 6.0 15.0 0.00 0.00 0.00 21 1016.5
20260903231627 89 0 6.0 15.0 0.00 0.00 0.00 21 1016.5
20260903231524 89 313 6.0 15.0 0.00 0.00 0.00 20 1016.5
20260903231421 90 330 6.0 15.0 0.00 0.00 0.00 21 1016.5
20260903231319 90 38 6.0 15.0 0.00 0.00 0.00 20 1016.5
20260903231218 90 17 6.0 15.0 0.00 0.00 0.00 20 1016.5
20260903231147 89 46 6.0 15.0 0.00 0.00 0.00 20 1016.5
20260903231119 89 51 6.0 15.0 0.00 0.00 0.00 20 1016.5
20260903231019 89 42 6.0 15.0 0.00 0.00 0.00 21 1016.5
20260903230913 89 0 6.0 15.0 0.00 0.00 0.00 20 1016.5
20260903230813 89 38 6.0 15.0 0.00 0.00 0.00 19 1016.5
20260903230713 89 41 5.0 15.0 0.00 0.00 0.00 20 1016.5
20260903230644 89 60 5.0 14.0 0.00 0.00 0.00 20 1016.5
20260903230618 89 39 5.0 12.0 0.00 0.00 0.00 20 1016.5
20260903230407 89 23 5.0 12.0 0.00 0.00 0.00 21 1016.4
20260903230304 89 325 5.0 12.0 0.00 0.00 0.00 20 1016.5
20260903230205 90 345 4.0 12.0 0.00 0.00 0.00 20 1016.5
20260903230144 90 59 4.0 11.0 0.00 0.00 0.00 20 1016.5
20260903230105 90 28 4.0 11.0 0.00 0.00 0.00 20 1016.5
20260903230004 90 355 5.0 11.0 0.00 0.00 0.00 21 1016.5
20260903225858 90 328 5.0 11.0 0.00 0.00 0.00 19 1016.5
20260903225806 90 355 5.0 12.0 0.00 0.00 0.00 19 1016.5
20260903225637 90 26 5.0 12.0 0.00 0.00 0.00 19 1016.5
20260903225559 90 49 5.0 12.0 0.00 0.00 0.00 20 1016.5
20260903225458 90 344 5.0 12.0 0.00 0.00 0.00 19 1016.5
20260903225353 90 24 5.0 12.0 0.00 0.00 0.00 19 1016.5
20260903225253 90 329 5.0 12.0 0.00 0.00 0.00 19 1016.5
20260903225153 90 308 5.0 12.0 0.00 0.00 0.00 20 1016.5
20260903225136 90 314 5.0 12.0 0.00 0.00 0.00 20 1016.5
20260903225053 90 355 5.0 12.0 0.00 0.00 0.00 20 1016.5
20260903224953 90 20 4.0 12.0 0.00 0.00 0.00 21 1016.5
20260903224847 90 48 4.0 12.0 0.00 0.00 0.00 20 1016.5
20260903224747 90 66 4.0 10.0 0.00 0.00 0.00 20 1016.5
20260903224647 90 55 4.0 12.0 0.00 0.00 0.00 19 1016.5
20260903224637 90 67 4.0 12.0 0.00 0.00 0.00 19 1016.5
20260903224547 90 55 4.0 12.0 0.00 0.00 0.00 20 1016.5
20260903224446 90 47 4.0 12.0 0.00 0.00 0.00 19 1016.6
20260903224341 90 10 4.0 12.0 0.00 0.00 0.00 21 1016.6
20260903224307 90 63 5.0 12.0 0.00 0.00 0.00 19 1016.6
20260903224154 90 355 6.0 12.0 0.00 0.00 0.00 20 1016.7
20260903223734 89 72 8.0 16.0 0.00 0.00 0.00 21 1016.8
20260903223639 89 348 8.0 16.0 0.00 0.00 0.00 21 1016.8
20260903223634 89 5 8.0 16.0 0.00 0.00 0.00 21 1016.8
20260903223541 89 33 8.0 16.0 0.00 0.00 0.00 20 1016.8
20260903223331 89 67 8.0 16.0 0.00 0.00 0.00 20 1016.8
20260903223230 89 60 8.0 16.0 0.00 0.00 0.00 20 1016.8
20260903223137 89 19 8.0 16.0 0.00 0.00 0.00 19 1016.8
20260903223130 89 32 8.0 16.0 0.00 0.00 0.00 19 1016.8
20260903223039 90 48 7.0 16.0 0.00 0.00 0.00 19 1016.8
20260903222743 90 13 6.0 13.0 0.00 0.00 0.00 20 1017.0
20260903222629 90 42 6.0 15.0 0.00 0.00 0.00 21 1016.8
20260903222422 90 13 6.0 15.0 0.00 0.00 0.00 21 1016.8
20260903222317 90 24 6.0 15.0 0.00 0.00 0.00 20 1017.0
20260903222217 90 54 6.0 15.0 0.00 0.00 0.00 20 1017.0
20260903222136 89 346 7.0 15.0 0.00 0.00 0.00 20 1017.0
20260903222117 89 38 7.0 15.0 0.00 0.00 0.00 20 1017.0
20260903222023 89 53 7.0 15.0 0.00 0.00 0.00 20 1017.0
20260903221815 89 84 8.0 15.0 0.00 0.00 0.00 19 1017.1
20260903221715 89 66 8.0 15.0 0.00 0.00 0.00 20 1017.0
20260903221636 89 59 8.0 15.0 0.00 0.00 0.00 21 1017.0
20260903221620 89 30 8.0 15.0 0.00 0.00 0.00 21 1017.0
20260903221411 89 52 9.0 15.0 0.00 0.00 0.00 19 1017.1
20260903221243 90 46 9.0 15.0 0.00 0.00 0.00 20 1017.1
20260903221105 90 34 8.0 15.0 0.00 0.00 0.00 19 1017.1
20260903221005 90 67 8.0 15.0 0.00 0.00 0.00 19 1017.1
20260903220904 91 34 8.0 15.0 0.00 0.00 0.00 19 1017.1
20260903220808 91 44 7.0 13.0 0.00 0.00 0.00 20 1017.2
20260903220636 91 22 6.0 13.0 0.00 0.00 0.00 19 1017.1
20260903220601 91 51 6.0 13.0 0.00 0.00 0.00 19 1017.1
20260903220504 91 31 6.0 13.0 0.00 0.00 0.00 20 1017.1
20260903220253 92 34 5.0 13.0 0.00 0.00 0.00 21 1017.2
20260903220204 92 28 5.0 12.0 0.00 0.00 0.00 20 1017.2
20260903220157 92 60 6.0 12.0 0.00 0.00 0.00 22 1017.1
20260903215953 91 26 6.0 12.0 0.00 0.00 0.00 19 1017.2
20260903215852 91 44 6.0 12.0 0.00 0.00 0.00 20 1017.2
20260903215753 91 42 6.0 12.0 0.00 0.00 0.00 20 1017.2
20260903215636 91 101 6.0 12.0 0.00 0.00 0.00 21 1017.2
20260903215549 91 13 6.0 12.0 0.00 0.00 0.00 21 1017.2
20260903215449 91 82 6.0 12.0 0.00 0.00 0.00 19 1017.2
20260903215346 91 41 7.0 12.0 0.00 0.00 0.00 20 1017.2
20260903215248 90 72 6.0 12.0 0.00 0.00 0.00 19 1017.2
20260903215134 90 79 6.0 12.0 0.00 0.00 0.00 21 1017.3
20260903215049 90 22 6.0 12.0 0.00 0.00 0.00 20 1017.2
20260903214840 90 75 7.0 14.0 0.00 0.00 0.00 20 1017.2
20260903214739 90 0 7.0 14.0 0.00 0.00 0.00 24 1017.2
20260903214643 89 308 7.0 14.0 0.00 0.00 0.00 21 1017.3
20260903214446 89 19 7.0 14.0 0.00 0.00 0.00 20 1017.3
20260903214248 90 24 7.0 14.0 0.00 0.00 0.00 20 1017.3
20260903214137 90 57 7.0 14.0 0.00 0.00 0.00 21 1017.3
20260903214037 90 49 7.0 14.0 0.00 0.00 0.00 20 1017.3
20260903213937 89 45 7.0 13.0 0.00 0.00 0.00 22 1017.3
20260903213837 89 79 6.0 13.0 0.00 0.00 0.00 20 1017.3
20260903213737 89 75 7.0 13.0 0.00 0.00 0.00 20 1017.3
20260903213637 89 63 7.0 13.0 0.00 0.00 0.00 20 1017.3
20260903213536 89 66 7.0 13.0 0.00 0.00 0.00 20 1017.3
20260903213444 89 67 8.0 14.0 0.00 0.00 0.00 21 1017.3
20260903213237 89 88 8.0 14.0 0.00 0.00 0.00 21 1017.3
20260903213136 89 69 8.0 14.0 0.00 0.00 0.00 20 1017.3
20260903213030 89 85 8.0 14.0 0.00 0.00 0.00 21 1017.4
20260903212931 89 19 8.0 14.0 0.00 0.00 0.00 22 1017.3
20260903212831 89 51 8.0 14.0 0.00 0.00 0.00 20 1017.3
20260903212731 89 50 8.0 14.0 0.00 0.00 0.00 20 1017.3
20260903212630 89 29 8.0 14.0 0.00 0.00 0.00 20 1017.4
20260903212525 89 20 8.0 14.0 0.00 0.00 0.00 20 1017.4
20260903212424 89 38 8.0 14.0 0.00 0.00 0.00 20 1017.4
20260903212343 89 52 7.0 14.0 0.00 0.00 0.00 20 1017.4
20260903212229 89 25 8.0 15.0 0.00 0.00 0.00 20 1017.4
20260903212019 89 61 8.0 15.0 0.00 0.00 0.00 20 1017.5
20260903211919 89 65 8.0 15.0 0.00 0.00 0.00 20 1017.4
20260903211825 89 65 8.0 15.0 0.00 0.00 0.00 20 1017.5
20260903211622 89 54 8.0 15.0 0.00 0.00 0.00 20 1017.5
20260903211618 89 77 8.0 15.0 0.00 0.00 0.00 20 1017.5
20260903211515 89 32 8.0 15.0 0.00 0.00 0.00 20 1017.5
20260903211414 89 52 8.0 15.0 0.00 0.00 0.00 21 1017.5
20260903211315 89 44 8.0 15.0 0.00 0.00 0.00 21 1017.5
20260903211215 89 69 8.0 13.0 0.00 0.00 0.00 21 1017.5
20260903211121 89 61 8.0 13.0 0.00 0.00 0.00 21 1017.5
20260903211112 89 48 8.0 13.0 0.00 0.00 0.00 21 1017.5
20260903211010 89 22 8.0 13.0 0.00 0.00 0.00 20 1017.5
20260903210906 89 24 7.0 13.0 0.00 0.00 0.00 20 1017.5
20260903210835 89 56 7.0 13.0 0.00 0.00 0.00 20 1017.5
20260903210606 89 71 7.0 13.0 0.00 0.00 0.00 21 1017.5
20260903210511 88 59 7.0 13.0 0.00 0.00 0.00 21 1017.5
20260903210302 89 48 8.0 16.0 0.00 0.00 0.00 20 1017.5
20260903210204 89 67 8.0 16.0 0.00 0.00 0.00 20 1017.8
20260903210120 89 57 8.0 16.0 0.00 0.00 0.00 20 1017.8
20260903210101 89 34 8.0 16.0 0.00 0.00 0.00 20 1017.8
20260903205957 89 55 9.0 16.0 0.00 0.00 0.00 20 1017.7
20260903205855 89 62 9.0 16.0 0.00 0.00 0.00 20 1017.7
20260903205754 89 34 9.0 16.0 0.00 0.00 0.00 20 1017.8
20260903205654 89 55 10.0 16.0 0.00 0.00 0.00 20 1017.8
20260903205620 89 92 10.0 16.0 0.00 0.00 0.00 20 1017.8
20260903205554 89 31 10.0 16.0 0.00 0.00 0.00 21 1017.8
20260903205448 89 95 9.0 16.0 0.00 0.00 0.00 21 1017.8
20260903205348 89 44 9.0 16.0 0.00 0.00 0.00 20 1017.8
20260903205249 89 42 8.0 16.0 0.00 0.00 0.00 21 1017.8
20260903205159 89 57 8.0 16.0 0.00 0.00 0.00 22 1017.8
20260903205152 89 64 8.0 16.0 0.00 0.00 0.00 20 1017.8
20260903204942 89 56 7.0 16.0 0.00 0.00 0.00 20 1017.8
20260903204844 89 57 7.0 15.0 0.00 0.00 0.00 21 1017.9
20260903204742 89 63 7.0 14.0 0.00 0.00 0.00 21 1017.9
20260903204643 89 57 7.0 14.0 0.00 0.00 0.00 21 1017.9
20260903204621 89 46 6.0 14.0 0.00 0.00 0.00 21 1018.0
20260903204542 89 37 7.0 14.0 0.00 0.00 0.00 23 1017.9
20260903204437 89 125 7.0 14.0 0.00 0.00 0.00 21 1017.9
20260903204400 89 132 8.0 14.0 0.00 0.00 0.00 21 1018.0
20260903204247 89 70 7.0 14.0 0.00 0.00 0.00 21 1017.9
20260903203933 89 341 7.0 14.0 0.00 0.00 0.00 20 1018.0
20260903203832 89 44 7.0 14.0 0.00 0.00 0.00 21 1018.0
20260903203733 89 39 7.0 12.0 0.00 0.00 0.00 21 1017.9
20260903203633 89 42 6.0 12.0 0.00 0.00 0.00 21 1018.0
20260903203620 89 46 6.0 12.0 0.00 0.00 0.00 21 1018.0
20260903203530 89 104 6.0 12.0 0.00 0.00 0.00 22 1018.0
20260903203438 89 17 6.0 12.0 0.00 0.00 0.00 22 1018.0
20260903203135 89 25 6.0 12.0 0.00 0.00 0.00 21 1018.0
20260903203129 89 14 6.0 12.0 0.00 0.00 0.00 21 1018.0
20260903202934 89 331 6.0 13.0 0.00 0.00 0.00 23 1018.0
20260903202630 88 320 7.0 15.0 0.00 0.00 0.00 23 1018.0
20260903202625 88 320 7.0 18.0 0.00 0.00 0.00 23 1018.0
20260903202415 88 340 7.0 18.0 0.00 0.00 0.00 22 1018.0
20260903202331 88 344 8.0 18.0 0.00 0.00 0.00 22 1018.0
20260903202217 88 32 8.0 18.0 0.00 0.00 0.00 20 1018.1
20260903202012 88 53 8.0 18.0 0.00 0.00 0.00 22 1018.1
20260903201907 88 10 9.0 18.0 0.00 0.00 0.00 23 1018.0
20260903201807 88 18 9.0 18.0 0.00 0.00 0.00 20 1018.1
20260903201707 88 37 8.0 18.0 0.00 0.00 0.00 22 1018.1
20260903201620 88 14 7.0 18.0 0.00 0.00 0.00 22 1018.1
20260903201607 88 92 7.0 16.0 0.00 0.00 0.00 22 1018.1
20260903201506 88 58 7.0 14.0 0.00 0.00 0.00 22 1018.1
20260903201400 88 13 7.0 14.0 0.00 0.00 0.00 21 1018.1
20260903201326 88 355 7.0 14.0 0.00 0.00 0.00 21 1018.1
20260903201319 88 25 7.0 14.0 0.00 0.00 0.00 22 1018.1
20260903200855 88 46 7.0 13.0 0.00 0.00 0.00 23 1018.1
20260903200754 88 53 7.0 13.0 0.00 0.00 0.00 22 1018.1
20260903200655 88 37 7.0 13.0 0.00 0.00 0.00 21 1018.1
20260903200620 88 68 7.0 13.0 0.00 0.00 0.00 21 1018.3
20260903200555 88 51 7.0 13.0 0.00 0.00 0.00 21 1018.3
20260903200454 88 34 7.0 13.0 0.00 0.00 0.00 20 1018.3
20260903200351 88 36 7.0 13.0 0.00 0.00 0.00 21 1018.3
20260903200308 88 98 7.0 13.0 0.00 0.00 0.00 22 1018.3
20260903200302 88 61 6.0 13.0 0.00 0.00 0.00 21 1018.3
20260903195947 88 59 6.0 12.0 0.00 0.00 0.00 21 1018.3
20260903195847 88 36 6.0 12.0 0.00 0.00 0.00 21 1018.3
20260903195726 88 45 6.0 12.0 0.00 0.00 0.00 21 1018.4
20260903195540 88 66 6.0 12.0 0.00 0.00 0.00 22 1018.4
20260903195440 88 84 6.0 12.0 0.00 0.00 0.00 22 1018.4
20260903195349 88 60 6.0 12.0 0.00 0.00 0.00 21 1018.4
20260903195113 87 59 6.0 12.0 0.00 0.00 0.00 21 1018.4
20260903195035 88 104 5.0 12.0 0.00 0.00 0.00 22 1018.4
20260903194934 88 97 5.0 10.0 0.00 0.00 0.00 21 1018.4
20260903194830 88 73 4.0 10.0 0.00 0.00 0.00 21 1018.4
20260903194736 88 61 4.0 10.0 0.00 0.00 0.00 22 1018.4
20260903194607 88 134 5.0 10.0 0.00 0.00 0.00 21 1018.4
20260903194529 88 76 5.0 10.0 0.00 0.00 0.00 20 1018.4
20260903194428 88 96 6.0 14.0 0.00 0.00 0.00 20 1018.4
20260903194325 88 98 6.0 14.0 0.00 0.00 0.00 21 1018.4
20260903194225 88 119 6.0 14.0 0.00 0.00 0.00 22 1018.4
20260903194125 87 144 6.0 14.0 0.00 0.00 0.00 25 1018.4
20260903194102 87 163 6.0 14.0 0.00 0.00 0.00 25 1018.4
20260903194025 87 289 7.0 14.0 0.00 0.00 0.00 23 1018.5
20260903193922 87 134 8.0 14.0 0.00 0.00 0.00 21 1018.5
20260903193816 87 82 8.0 16.0 0.00 0.00 0.00 21 1018.5
20260903193716 87 51 9.0 16.0 0.00 0.00 0.00 21 1018.5
20260903193704 87 57 9.0 16.0 0.00 0.00 0.00 21 1018.5
20260903193517 87 38 9.0 16.0 0.00 0.00 0.00 21 1018.5
20260903193416 87 25 9.0 16.0 0.00 0.00 0.00 20 1018.5
20260903193311 88 21 10.0 16.0 0.00 0.00 0.00 22 1018.5
20260903193210 88 32 9.0 16.0 0.00 0.00 0.00 21 1018.5
20260903193157 88 24 9.0 16.0 0.00 0.00 0.00 24 1018.5
20260903193011 88 92 9.0 16.0 0.00 0.00 0.00 20 1018.6
20260903192910 88 48 9.0 16.0 0.00 0.00 0.00 20 1018.6
20260903192805 89 40 8.0 16.0 0.00 0.00 0.00 21 1018.6
20260903192705 89 111 8.0 16.0 0.00 0.00 0.00 20 1018.5
20260903192605 89 126 8.0 16.0 0.00 0.00 0.00 21 1018.6
20260903192543 89 96 8.0 16.0 0.00 0.00 0.00 21 1018.6
20260903192511 89 80 7.0 16.0 0.00 0.00 0.00 22 1018.6
20260903192258 89 69 6.0 15.0 0.00 0.00 0.00 22 1018.6
20260903192158 89 71 5.0 15.0 0.00 0.00 0.00 21 1018.7
20260903192058 89 69 5.0 15.0 0.00 0.00 0.00 21 1018.7
20260903192038 89 84 5.0 13.0 0.00 0.00 0.00 21 1018.7
20260903191959 89 106 5.0 13.0 0.00 0.00 0.00 22 1018.7
20260903191900 89 70 5.0 13.0 0.00 0.00 0.00 22 1018.6
20260903191700 88 113 4.0 13.0 0.00 0.00 0.00 23 1018.7
20260903191532 88 60 4.0 11.0 0.00 0.00 0.00 24 1018.7
20260903191454 88 126 4.0 11.0 0.00 0.00 0.00 22 1018.7
20260903191352 88 90 4.0 11.0 0.00 0.00 0.00 25 1018.8
20260903191247 87 132 4.0 12.0 0.00 0.00 0.00 23 1018.8
20260903191146 87 174 5.0 12.0 0.00 0.00 0.00 25 1018.8
20260903191046 87 178 5.0 12.0 0.00 0.00 0.00 22 1018.8
20260903191026 87 128 5.0 12.0 0.00 0.00 0.00 22 1018.8
20260903190947 87 115 5.0 12.0 0.00 0.00 0.00 22 1018.8
20260903190846 87 138 5.0 14.0 0.00 0.00 0.00 23 1019.0
20260903190740 87 106 5.0 14.0 0.00 0.00 0.00 23 1019.0
20260903190640 87 81 5.0 14.0 0.00 0.00 0.00 22 1019.0
20260903190541 87 40 5.0 14.0 0.00 0.00 0.00 22 1019.0
20260903190520 87 34 5.0 14.0 0.00 0.00 0.00 22 1019.0
20260903190440 87 49 5.0 14.0 0.00 0.00 0.00 22 1019.0
20260903190340 87 44 6.0 14.0 0.00 0.00 0.00 22 1019.0
20260903190237 87 39 6.0 14.0 0.00 0.00 0.00 24 1019.0
20260903190135 87 30 6.0 14.0 0.00 0.00 0.00 22 1019.1
20260903190034 87 59 6.0 14.0 0.00 0.00 0.00 24 1019.0
20260903190013 87 35 6.0 14.0 0.00 0.00 0.00 24 1019.0
20260903185934 87 355 6.0 14.0 0.00 0.00 0.00 24 1019.0
20260903185834 87 53 7.0 14.0 0.00 0.00 0.00 22 1019.1
20260903185730 87 30 7.0 14.0 0.00 0.00 0.00 22 1019.0
20260903185628 87 49 7.0 14.0 0.00 0.00 0.00 22 1019.0
20260903185540 87 38 7.0 14.0 0.00 0.00 0.00 22 1019.0
20260903185533 87 32 7.0 14.0 0.00 0.00 0.00 22 1019.0
20260903185328 87 69 7.0 14.0 0.00 0.00 0.00 21 1019.1
20260903185222 87 60 7.0 14.0 0.00 0.00 0.00 22 1019.1
20260903185123 87 61 6.0 14.0 0.00 0.00 0.00 22 1019.1
20260903185002 87 85 6.0 13.0 0.00 0.00 0.00 22 1019.0
20260903184923 87 95 6.0 13.0 0.00 0.00 0.00 22 1019.1
20260903184822 87 78 5.0 13.0 0.00 0.00 0.00 22 1019.1
20260903184743 87 61 6.0 13.0 0.00 0.00 0.00 23 1019.1
20260903184522 87 135 7.0 13.0 0.00 0.00 0.00 24 1019.1
20260903184316 86 120 7.0 13.0 0.00 0.00 0.00 22 1019.2
20260903184211 87 28 7.0 13.0 0.00 0.00 0.00 22 1019.2
20260903184111 87 67 7.0 13.0 0.00 0.00 0.00 22 1019.3
20260903184011 87 66 7.0 13.0 0.00 0.00 0.00 22 1019.3
20260903183950 87 66 7.0 13.0 0.00 0.00 0.00 22 1019.3
20260903183911 87 107 7.0 13.0 0.00 0.00 0.00 21 1019.3
20260903183810 87 48 7.0 13.0 0.00 0.00 0.00 22 1019.4
20260903183705 87 72 7.0 13.0 0.00 0.00 0.00 25 1019.3
20260903183604 87 87 6.0 13.0 0.00 0.00 0.00 22 1019.3
20260903183504 87 41 7.0 14.0 0.00 0.00 0.00 22 1019.3
20260903183444 87 69 7.0 19.0 0.00 0.00 0.00 22 1019.3
20260903183404 87 68 7.0 20.0 0.00 0.00 0.00 23 1019.4
20260903183304 87 78 7.0 20.0 0.00 0.00 0.00 26 1019.4
20260903183158 87 116 7.0 20.0 0.00 0.00 0.00 22 1019.4
20260903183058 87 121 6.0 20.0 0.00 0.00 0.00 23 1019.4
20260903183045 87 103 7.0 20.0 0.00 0.00 0.00 24 1019.4
20260903182905 87 108 7.0 20.0 0.00 0.00 0.00 26 1019.4
20260903182652 87 86 8.0 20.0 0.00 0.00 0.00 23 1019.6
20260903182553 87 120 8.0 20.0 0.00 0.00 0.00 23 1019.6
20260903182452 87 98 7.0 20.0 0.00 0.00 0.00 23 1019.6
20260903182431 87 76 7.0 15.0 0.00 0.00 0.00 23 1019.6
20260903182352 87 98 7.0 14.0 0.00 0.00 0.00 24 1019.6
20260903182252 87 235 7.0 14.0 0.00 0.00 0.00 24 1019.6
20260903182147 87 144 6.0 14.0 0.00 0.00 0.00 22 1019.7
20260903182105 87 81 6.0 14.0 0.00 0.00 0.00 22 1019.7
20260903182058 88 96 6.0 14.0 0.00 0.00 0.00 22 1019.7
20260903181747 88 66 5.0 13.0 0.00 0.00 0.00 22 1019.7
20260903181641 88 22 5.0 10.0 0.00 0.00 0.00 22 1019.7
20260903181541 88 111 5.0 10.0 0.00 0.00 0.00 22 1019.8
20260903181452 88 104 4.0 10.0 0.00 0.00 0.00 22 1019.7
20260903181445 88 82 4.0 10.0 0.00 0.00 0.00 22 1019.7
20260903181241 87 152 5.0 10.0 0.00 0.00 0.00 26 1019.7
20260903181035 87 161 5.0 10.0 0.00 0.00 0.00 21 1019.8
20260903180935 87 153 5.0 10.0 0.00 0.00 0.00 22 1019.8
20260903180928 87 152 5.0 10.0 0.00 0.00 0.00 22 1019.8
20260903180840 87 140 5.0 10.0 0.00 0.00 0.00 23 1019.8
20260903180636 87 130 6.0 14.0 0.00 0.00 0.00 23 1019.7
20260903180432 87 102 6.0 14.0 0.00 0.00 0.00 22 1019.8
20260903180428 87 101 6.0 14.0 0.00 0.00 0.00 22 1019.8
20260903180328 87 120 6.0 14.0 0.00 0.00 0.00 23 1019.8
20260903180229 87 84 6.0 14.0 0.00 0.00 0.00 23 1019.8
20260903180130 87 96 6.0 14.0 0.00 0.00 0.00 26 1019.8
20260903175929 87 199 6.0 14.0 0.00 0.00 0.00 24 1019.9
20260903175922 87 163 6.0 14.0 0.00 0.00 0.00 24 1019.9
20260903175822 87 98 6.0 14.0 0.00 0.00 0.00 22 1019.9
20260903175722 87 90 6.0 11.0 0.00 0.00 0.00 24 1019.9
20260903175618 87 119 5.0 11.0 0.00 0.00 0.00 24 1019.9
20260903175518 87 128 5.0 11.0 0.00 0.00 0.00 22 1019.9
20260903175429 87 141 6.0 12.0 0.00 0.00 0.00 24 1019.9
20260903175419 87 120 6.0 12.0 0.00 0.00 0.00 24 1019.9
20260903175319 87 151 6.0 12.0 0.00 0.00 0.00 25 1019.9
20260903175219 87 105 7.0 12.0 0.00 0.00 0.00 24 1019.9
20260903175035 86 158 7.0 12.0 0.00 0.00 0.00 26 1019.9
20260903174911 86 127 7.0 12.0 0.00 0.00 0.00 25 1019.9
20260903174817 86 113 7.0 12.0 0.00 0.00 0.00 22 1019.9
20260903174605 86 134 8.0 12.0 0.00 0.00 0.00 21 1020.0
20260903174505 87 79 8.0 12.0 0.00 0.00 0.00 22 1019.9
20260903174426 87 101 7.0 12.0 0.00 0.00 0.00 21 1019.9
20260903174405 87 66 7.0 12.0 0.00 0.00 0.00 21 1019.9
20260903174305 87 101 7.0 12.0 0.00 0.00 0.00 22 1019.9
20260903174205 87 97 6.0 12.0 0.00 0.00 0.00 24 1019.9
20260903174058 87 84 6.0 12.0 0.00 0.00 0.00 23 1019.9
20260903173958 87 105 6.0 12.0 0.00 0.00 0.00 23 1020.0
20260903173924 87 104 6.0 12.0 0.00 0.00 0.00 23 1020.0
20260903173905 87 86 6.0 12.0 0.00 0.00 0.00 23 1020.0
20260903173658 87 98 6.0 11.0 0.00 0.00 0.00 26 1020.0
20260903173552 87 109 6.0 11.0 0.00 0.00 0.00 24 1020.0
20260903173528 87 111 5.0 11.0 0.00 0.00 0.00 25 1020.0
20260903173353 87 103 5.0 11.0 0.00 0.00 0.00 24 1020.0
20260903173252 87 76 5.0 11.0 0.00 0.00 0.00 27 1020.0
20260903173153 86 75 6.0 11.0 0.00 0.00 0.00 27 1020.0
20260903173047 86 117 6.0 11.0 0.00 0.00 0.00 27 1020.0
20260903172946 86 136 6.0 11.0 0.00 0.00 0.00 24 1020.0
20260903172922 86 139 6.0 11.0 0.00 0.00 0.00 24 1020.0
20260903172853 86 122 6.0 11.0 0.00 0.00 0.00 26 1020.0
20260903172646 85 105 6.0 11.0 0.00 0.00 0.00 27 1020.0
20260903172548 85 101 6.0 11.0 0.00 0.00 0.00 27 1020.0
20260903172422 85 158 6.0 11.0 0.00 0.00 0.00 26 1020.0
20260903172340 85 96 6.0 11.0 0.00 0.00 0.00 27 1020.0
20260903172241 85 148 6.0 10.0 0.00 0.00 0.00 26 1020.0
20260903172141 84 96 6.0 12.0 0.00 0.00 0.00 26 1020.0
20260903172037 84 135 6.0 12.0 0.00 0.00 0.00 25 1020.0
20260903171936 84 111 6.0 12.0 0.00 0.00 0.00 25 1020.0
20260903171922 84 114 6.0 12.0 0.00 0.00 0.00 25 1020.0
20260903171836 84 84 5.0 12.0 0.00 0.00 0.00 26 1020.0
20260903171736 84 109 5.0 12.0 0.00 0.00 0.00 27 1020.0
20260903171633 84 62 6.0 12.0 0.00 0.00 0.00 27 1020.2
20260903171531 84 100 6.0 12.0 0.00 0.00 0.00 27 1020.2
20260903171429 84 85 6.0 13.0 0.00 0.00 0.00 26 1020.2
20260903171422 84 109 6.0 13.0 0.00 0.00 0.00 26 1020.2
20260903171329 84 86 6.0 13.0 0.00 0.00 0.00 27 1020.2
20260903171228 84 117 7.0 13.0 0.00 0.00 0.00 27 1020.2
20260903171128 84 101 7.0 13.0 0.00 0.00 0.00 25 1020.2
20260903171036 84 98 7.0 13.0 0.00 0.00 0.00 24 1020.2
20260903171029 84 84 6.0 13.0 0.00 0.00 0.00 24 1020.0
20260903170827 84 153 7.0 13.0 0.00 0.00 0.00 24 1020.0
20260903170726 84 117 6.0 13.0 0.00 0.00 0.00 24 1020.2
20260903170627 84 115 6.0 13.0 0.00 0.00 0.00 24 1020.2
20260903170526 84 105 6.0 13.0 0.00 0.00 0.00 25 1020.2
20260903170429 84 137 6.0 12.0 0.00 0.00 0.00 25 1020.0
20260903170422 84 141 6.0 12.0 0.00 0.00 0.00 25 1020.0
20260903170333 84 63 5.0 12.0 0.00 0.00 0.00 26 1020.2
20260903170127 84 69 5.0 12.0 0.00 0.00 0.00 26 1020.2
20260903170027 85 103 5.0 11.0 0.00 0.00 0.00 25 1020.2
20260903165922 85 134 5.0 11.0 0.00 0.00 0.00 28 1020.2
20260903165833 85 123 5.0 11.0 0.00 0.00 0.00 26 1020.2
20260903165624 85 119 5.0 11.0 0.00 0.00 0.00 26 1020.2
20260903165524 85 153 5.0 11.0 0.00 0.00 0.00 27 1020.2
20260903165424 85 137 5.0 9.0 0.00 0.00 0.00 29 1020.2
20260903165334 84 104 5.0 9.0 0.00 0.00 0.00 28 1020.2
20260903165021 85 86 4.0 9.0 0.00 0.00 0.00 24 1020.2
20260903164923 85 90 4.0 9.0 0.00 0.00 0.00 27 1020.2
20260903164917 85 120 4.0 8.0 0.00 0.00 0.00 27 1020.2
20260903164820 85 71 4.0 9.0 0.00 0.00 0.00 25 1020.2
20260903164727 85 115 4.0 9.0 0.00 0.00 0.00 26 1020.3
20260903164528 85 115 4.0 9.0 0.00 0.00 0.00 26 1020.2
20260903164414 85 111 4.0 9.0 0.00 0.00 0.00 26 1020.3
20260903164318 85 138 3.0 9.0 0.00 0.00 0.00 27 1020.3
20260903164216 85 186 3.0 9.0 0.00 0.00 0.00 24 1020.3
20260903164116 85 91 3.0 9.0 0.00 0.00 0.00 25 1020.2
20260903164016 85 135 3.0 9.0 0.00 0.00 0.00 26 1020.3
20260903163918 85 152 3.0 9.0 0.00 0.00 0.00 27 1020.3
20260903163911 85 153 3.0 9.0 0.00 0.00 0.00 27 1020.3
20260903163816 85 96 3.0 7.0 0.00 0.00 0.00 25 1020.3
20260903163714 85 98 3.0 7.0 0.00 0.00 0.00 24 1020.3
20260903163614 85 108 2.0 7.0 0.00 0.00 0.00 29 1020.3
20260903163523 84 119 3.0 7.0 0.00 0.00 0.00 32 1020.3
20260903163516 84 178 3.0 7.0 0.00 0.00 0.00 29 1020.3
20260903163315 84 151 3.0 7.0 0.00 0.00 0.00 29 1020.2
20260903163214 84 130 3.0 7.0 0.00 0.00 0.00 29 1020.3
20260903163112 83 134 3.0 7.0 0.00 0.00 0.00 29 1020.3
20260903163013 83 103 3.0 7.0 0.00 0.00 0.00 29 1020.3
20260903162913 83 123 3.0 7.0 0.00 0.00 0.00 30 1020.3
20260903162819 83 107 3.0 7.0 0.00 0.00 0.00 30 1020.3
20260903162612 83 76 3.0 7.0 0.00 0.00 0.00 32 1020.3
20260903162523 83 142 3.0 7.0 0.00 0.00 0.00 31 1020.2
20260903162516 83 142 3.0 7.0 0.00 0.00 0.00 33 1020.2
20260903162310 82 142 3.0 7.0 0.00 0.00 0.00 30 1020.3
20260903162218 82 122 3.0 7.0 0.00 0.00 0.00 33 1020.3
20260903162010 82 130 3.0 7.0 0.00 0.00 0.00 31 1020.3
20260903161910 82 107 3.0 7.0 0.00 0.00 0.00 33 1020.3
20260903161810 82 119 3.0 7.0 0.00 0.00 0.00 31 1020.3
20260903161710 82 150 3.0 7.0 0.00 0.00 0.00 30 1020.2
20260903161610 81 105 3.0 7.0 0.00 0.00 0.00 31 1020.3
20260903161510 81 109 3.0 7.0 0.00 0.00 0.00 32 1020.3
20260903161412 81 146 3.0 7.0 0.00 0.00 0.00 32 1020.2
20260903161408 81 144 3.0 7.0 0.00 0.00 0.00 32 1020.2
20260903161308 81 134 3.0 7.0 0.00 0.00 0.00 31 1020.3
20260903161209 80 134 3.0 7.0 0.00 0.00 0.00 30 1020.2
20260903161106 80 120 3.0 7.0 0.00 0.00 0.00 30 1020.2
20260903161004 80 94 3.0 7.0 0.00 0.00 0.00 31 1020.3
20260903160907 80 38 3.0 8.0 0.00 0.00 0.00 31 1020.2
20260903160902 80 90 3.0 8.0 0.00 0.00 0.00 31 1020.2
20260903160802 80 70 3.0 8.0 0.00 0.00 0.00 32 1020.2
20260903160702 79 109 3.0 8.0 0.00 0.00 0.00 33 1020.2
20260903160603 79 109 4.0 8.0 0.00 0.00 0.00 31 1020.3
20260903160502 80 111 4.0 8.0 0.00 0.00 0.00 31 1020.3
20260903160408 79 97 4.0 8.0 0.00 0.00 0.00 34 1020.2
20260903160402 79 90 4.0 8.0 0.00 0.00 0.00 34 1020.2
20260903160303 79 92 4.0 8.0 0.00 0.00 0.00 33 1020.3
20260903160200 79 177 4.0 10.0 0.00 0.00 0.00 33 1020.3
20260903160101 79 118 4.0 10.0 0.00 0.00 0.00 34 1020.3
20260903160000 79 111 4.0 10.0 0.00 0.00 0.00 34 1020.3
20260903155908 79 84 4.0 10.0 0.00 0.00 0.00 34 1020.3
20260903155901 79 78 4.0 10.0 0.00 0.00 0.00 34 1020.3
20260903155800 79 102 4.0 10.0 0.00 0.00 0.00 34 1020.3
20260903155700 79 107 5.0 10.0 0.00 0.00 0.00 34 1020.2
20260903155600 79 47 4.0 10.0 0.00 0.00 0.00 34 1020.3
20260903155500 79 98 4.0 10.0 0.00 0.00 0.00 34 1020.3
20260903155410 79 74 4.0 10.0 0.00 0.00 0.00 33 1020.2
20260903155406 79 117 4.0 10.0 0.00 0.00 0.00 33 1020.2
20260903155157 79 105 4.0 7.0 0.00 0.00 0.00 34 1020.3
20260903155056 79 115 4.0 8.0 0.00 0.00 0.00 32 1020.2
20260903154954 79 118 4.0 8.0 0.00 0.00 0.00 32 1020.2
20260903154907 79 118 4.0 8.0 0.00 0.00 0.00 33 1020.2
20260903154854 79 118 4.0 8.0 0.00 0.00 0.00 33 1020.2
20260903154752 79 124 3.0 8.0 0.00 0.00 0.00 33 1020.3
20260903154648 79 109 3.0 8.0 0.00 0.00 0.00 33 1020.2
20260903154553 78 115 3.0 8.0 0.00 0.00 0.00 34 1020.2
20260903154406 78 123 3.0 8.0 0.00 0.00 0.00 34 1020.2
20260903154346 78 107 3.0 8.0 0.00 0.00 0.00 34 1020.2
20260903154247 78 88 3.0 8.0 0.00 0.00 0.00 34 1020.2
20260903154147 78 109 2.0 8.0 0.00 0.00 0.00 35 1020.3
20260903154046 78 128 2.0 7.0 0.00 0.00 0.00 34 1020.3
20260903153946 78 98 2.0 6.0 0.00 0.00 0.00 34 1020.2
20260903153906 78 118 2.0 6.0 0.00 0.00 0.00 34 1020.2
20260903153846 78 118 2.0 6.0 0.00 0.00 0.00 35 1020.2
20260903153746 77 113 2.0 6.0 0.00 0.00 0.00 35 1020.3
20260903153646 77 105 2.0 6.0 0.00 0.00 0.00 34 1020.2
20260903153545 0 101 2.0 6.0 0.00 0.00 0.00 1020.3
20260903153445 0 150 2.0 6.0 0.00 0.00 0.00 1020.3
20260903153406 0 121 2.0 6.0 0.00 0.00 0.00 1020.3
20260903153342 0 115 2.0 6.0 0.00 0.00 0.00 1020.3
20260903153247 0 142 2.0 6.0 0.00 0.00 0.00 1020.3
20260903153041 0 123 2.0 6.0 0.00 0.00 0.00 1020.3
20260903152952 0 115 2.0 5.0 0.00 0.00 0.00 1020.3
20260903152945 0 124 2.0 5.0 0.00 0.00 0.00 1020.3
20260903152738 0 124 2.0 5.0 0.00 0.00 0.00 1020.3
20260903152638 0 99 1.0 5.0 0.00 0.00 0.00 1020.3
20260903152536 0 99 1.0 5.0 0.00 0.00 0.00 1020.3
20260903152436 0 121 2.0 5.0 0.00 0.00 0.00 1020.3
20260903152401 0 106 2.0 5.0 0.00 0.00 0.00 1020.3
20260903152334 0 101 2.0 5.0 0.00 0.00 0.00 1020.2
20260903152234 0 167 2.0 5.0 0.00 0.00 0.00 1020.3
20260903152132 0 111 2.0 5.0 0.00 0.00 0.00 1020.3
20260903152031 0 110 2.0 5.0 0.00 0.00 0.00 1020.3
20260903151901 0 153 2.0 4.0 0.00 0.00 0.00 1020.3
20260903151828 0 117 2.0 4.0 0.00 0.00 0.00 1020.3
20260903151733 0 141 2.0 4.0 0.00 0.00 0.00 1020.3
20260903151525 0 111 2.0 4.0 0.00 0.00 0.00 1020.2
20260903151425 0 129 2.0 4.0 0.00 0.00 0.00 1020.3
20260903151402 0 123 2.0 4.0 0.00 0.00 0.00 1020.3
20260903151325 0 111 1.0 4.0 0.00 0.00 0.00 1020.3
20260903151224 0 118 1.0 4.0 0.00 0.00 0.00 1020.3
20260903151124 0 132 1.0 4.0 0.00 0.00 0.00 1020.3
20260903151025 0 127 1.0 4.0 0.00 0.00 0.00 1020.3
20260903150924 0 126 1.0 4.0 0.00 0.00 0.00 1020.3
20260903150859 0 132 1.0 4.0 0.00 0.00 0.00 1020.3
20260903150824 0 129 1.0 4.0 0.00 0.00 0.00 1020.3
20260903150724 0 122 1.0 4.0 0.00 0.00 0.00 1020.3
20260903150623 0 144 1.0 4.0 0.00 0.00 0.00 1020.3
20260903150527 0 154 1.0 4.0 0.00 0.00 0.00 1020.3
20260903150357 0 154 1.0 4.0 0.00 0.00 0.00 1020.3
20260903150322 0 154 1.0 4.0 0.00 0.00 0.00 1020.3
20260903150221 0 141 1.0 4.0 0.00 0.00 0.00 1020.3
20260903150121 0 141 1.0 4.0 0.00 0.00 0.00 1020.3
20260903150020 0 146 1.0 3.0 0.00 0.00 0.00 1020.3
20260903145918 0 146 1.0 3.0 0.00 0.00 0.00 1020.3
20260903145855 0 146 1.0 3.0 0.00 0.00 0.00 1020.3
20260903145818 0 146 1.0 3.0 0.00 0.00 0.00 1020.4
20260903145714 0 146 1.0 3.0 0.00 0.00 0.00 1020.4
20260903145612 0 146 1.0 3.0 0.00 0.00 0.00 1020.4
20260903145513 0 146 1.0 4.0 0.00 0.00 0.00 1020.3
20260903145413 0 146 1.0 4.0 0.00 0.00 0.00 1020.4
20260903145353 0 146 1.0 4.0 0.00 0.00 0.00 1020.4
20260903145318 0 146 1.0 4.0 0.00 0.00 0.00 1020.4
20260903145111 0 133 1.0 4.0 0.00 0.00 0.00 1020.4
20260903145028 0 147 1.0 4.0 0.00 0.00 0.00 1020.4
20260903145021 0 147 1.0 4.0 0.00 0.00 0.00 1020.4
20260903144710 0 163 1.0 4.0 0.00 0.00 0.00 1020.4
20260903144611 0 163 1.0 4.0 0.00 0.00 0.00 1020.4
20260903144603 0 158 1.0 3.0 0.00 0.00 0.00 1020.4
20260903144309 0 158 1.0 3.0 0.00 0.00 0.00 1020.4
20260903144206 0 178 1.0 3.0 0.00 0.00 0.00 1020.4
20260903144106 0 197 1.0 3.0 0.00 0.00 0.00 1020.4
20260903144006 0 187 1.0 3.0 0.00 0.00 0.00 1020.4
20260903143904 0 187 1.0 3.0 0.00 0.00 0.00 1020.4
20260903143848 0 187 1.0 3.0 0.00 0.00 0.00 1020.4
20260903143804 0 187 1.0 4.0 0.00 0.00 0.00 1020.4
20260903143704 0 187 1.0 4.0 0.00 0.00 0.00 1020.4
20260903143604 0 187 1.0 4.0 0.00 0.00 0.00 1020.4
20260903143505 0 187 1.0 4.0 0.00 0.00 0.00 1020.3
20260903143347 0 187 1.0 4.0 0.00 0.00 0.00 1020.4
20260903143302 0 187 1.0 4.0 0.00 0.00 0.00 1020.4
20260903143209 0 187 1.0 4.0 0.00 0.00 0.00 1020.4
20260903143002 0 201 1.0 4.0 0.00 0.00 0.00 1020.4
20260903142902 0 201 1.0 4.0 0.00 0.00 0.00 1020.4
20260903142846 0 200 1.0 4.0 0.00 0.00 0.00 1020.4
20260903142802 0 211 1.0 4.0 0.00 0.00 0.00 1020.4
20260903142702 0 202 1.0 4.0 0.00 0.00 0.00 1020.5
20260903142602 0 199 1.0 4.0 0.00 0.00 0.00 1020.4
20260903142502 0 158 1.0 4.0 0.00 0.00 0.00 1020.5
20260903142345 0 127 1.0 4.0 0.00 0.00 0.00 1020.5
20260903142258 0 127 1.0 4.0 0.00 0.00 0.00 1020.5
20260903142156 0 127 2.0 5.0 0.00 0.00 0.00 1020.4
20260903142055 0 127 2.0 5.0 0.00 0.00 0.00 1020.4
20260903141954 0 127 2.0 5.0 0.00 0.00 0.00 1020.5
20260903141842 0 127 2.0 5.0 0.00 0.00 0.00 1020.5
20260903141754 0 131 2.0 5.0 0.00 0.00 0.00 1020.5
20260903141652 0 134 2.0 5.0 0.00 0.00 0.00 1020.5
20260903141559 0 171 2.0 5.0 0.00 0.00 0.00 1020.6
20260903141352 0 157 1.0 5.0 0.00 0.00 0.00 1020.5
20260903141341 0 169 1.0 5.0 0.00 0.00 0.00 1020.5
20260903141300 0 172 1.0 5.0 0.00 0.00 0.00 1020.5
20260903141053 0 188 1.0 5.0 0.00 0.00 0.00 1020.5
20260903140952 0 199 1.0 5.0 0.00 0.00 0.00 1020.4
20260903140853 0 195 1.0 4.0 0.00 0.00 0.00 1020.4
20260903140841 0 205 1.0 5.0 0.00 0.00 0.00 1020.4
20260903140752 0 205 1.0 5.0 0.00 0.00 0.00 1020.4
20260903140650 0 205 1.0 5.0 0.00 0.00 0.00 1020.4
20260903140551 0 205 1.0 5.0 0.00 0.00 0.00 1020.3
20260903140450 0 205 1.0 5.0 0.00 0.00 0.00 1020.4
20260903140340 0 205 1.0 5.0 0.00 0.00 0.00 1020.4
20260903140250 0 205 1.0 5.0 0.00 0.00 0.00 1020.4
20260903140155 0 205 1.0 5.0 0.00 0.00 0.00 1020.4
20260903135947 0 240 1.0 5.0 0.00 0.00 0.00 1020.4
20260903135908 0 201 1.0 5.0 0.00 0.00 0.00 1020.4
20260903135902 0 208 1.0 5.0 0.00 0.00 0.00 1020.4
20260903135447 0 239 1.0 3.0 0.00 0.00 0.00 1020.3
20260903135440 0 239 1.0 3.0 0.00 0.00 0.00 1020.3
20260903135236 0 238 1.0 3.0 0.00 0.00 0.00 1020.3
20260903135136 0 239 1.0 3.0 0.00 0.00 0.00 1020.3
20260903135036 0 238 1.0 3.0 0.00 0.00 0.00 1020.3
20260903134935 0 238 1.0 3.0 0.00 0.00 0.00 1020.3
20260903134848 0 238 1.0 3.0 0.00 0.00 0.00 1020.4
20260903134844 0 239 0.0 3.0 0.00 0.00 0.00 1020.4
20260903134636 0 223 1.0 3.0 0.00 0.00 0.00 1020.4
20260903134536 0 223 1.0 3.0 0.00 0.00 0.00 1020.3
20260903134436 0 223 1.0 3.0 0.00 0.00 0.00 1020.3
20260903134336 0 223 1.0 3.0 0.00 0.00 0.00 1020.3
20260903134236 0 223 1.0 3.0 0.00 0.00 0.00 1020.3
20260903134136 0 223 1.0 4.0 0.00 0.00 0.00 1020.3
20260903134036 0 223 2.0 5.0 0.00 0.00 0.00 1020.3
20260903133936 0 223 2.0 5.0 0.00 0.00 0.00 1020.3
20260903133832 0 223 2.0 5.0 0.00 0.00 0.00 1020.3
20260903133732 0 227 2.0 5.0 0.00 0.00 0.00 1020.3
20260903133630 0 246 2.0 5.0 0.00 0.00 0.00 1020.4
20260903133531 0 218 1.0 5.0 0.00 0.00 0.00 1020.3
20260903133430 0 211 1.0 5.0 0.00 0.00 0.00 1020.3
20260903133327 0 192 1.0 5.0 0.00 0.00 0.00 1020.2
20260903133226 0 192 1.0 5.0 0.00 0.00 0.00 1020.2
20260903133123 0 217 1.0 5.0 0.00 0.00 0.00 1020.2
20260903133021 0 193 2.0 7.0 0.00 0.00 0.00 1020.0
20260903132922 0 176 2.0 7.0 0.00 0.00 0.00 1020.0
20260903132818 0 176 2.0 7.0 0.00 0.00 0.00 1020.0
20260903132718 0 176 2.0 7.0 0.00 0.00 0.00 1020.0
20260903132619 0 138 2.0 7.0 0.00 0.00 0.00 1020.0
20260903132518 0 138 2.0 7.0 0.00 0.00 0.00 1020.0
20260903132418 0 138 3.0 7.0 0.00 0.00 0.00 1019.9
20260903132325 0 138 3.0 7.0 0.00 0.00 0.00 1020.0
20260903132117 0 148 2.0 7.0 0.00 0.00 0.00 1020.0
20260903132018 0 142 2.0 7.0 0.00 0.00 0.00 1020.0
20260903131929 0 158 1.0 7.0 0.00 0.00 0.00 1020.0
20260903131922 0 138 1.0 7.0 0.00 0.00 0.00 1019.9